GFSSW_500_spd_000.txt.gz
Wind_Speed
43 60 61 60 59 60 53 55 53 45 42 44 48 47 41 40 36 37 44 34 30 32 33 30 32 32 36 39 40 35 30 25 19 21 20 24 22 24 26 29 28 30 29 28 26
48 51 55 57 58 55 57 57 56 61 56 53 53 51 47 43 37 37 30 31 34 33 36 38 38 39 40 41 35 32 25 23 23 24 21 21 20 25 26 26 27 30 28 25 25
21 29 46 62 58 63 60 76 60 57 58 57 56 55 62 63 64 40 39 41 40 40 42 47 40 39 39 37 35 30 25 27 26 25 21 20 19 21 25 27 28 33 29 26 27
23 23 25 26 35 45 49 61 62 67 66 61 64 47 44 47 49 44 51 48 46 49 54 52 46 35 36 35 34 32 27 29 25 21 23 21 23 22 26 30 33 34 29 29 28
26 26 28 30 30 30 29 34 34 33 36 35 35 45 40 39 36 49 46 45 51 54 47 43 40 34 34 33 33 33 28 31 28 22 23 22 21 23 26 30 31 31 30 30 30
31 31 31 31 32 32 32 33 33 33 34 33 36 39 34 28 32 39 36 32 35 40 41 41 38 32 30 30 33 34 31 32 35 26 21 23 24 25 28 27 25 26 30 30 31
36 35 35 36 36 36 37 37 38 36 36 38 40 40 34 23 31 33 32 29 31 33 36 37 33 31 28 32 35 31 34 33 28 26 29 31 27 30 30 26 25 25 29 30 31
41 41 41 41 41 41 41 42 42 41 42 41 40 40 34 31 32 30 32 30 33 33 29 31 30 30 31 35 29 32 33 27 28 30 37 35 30 25 29 26 26 26 27 29 32
38 38 39 39 40 42 44 46 48 48 46 45 45 44 36 33 36 35 32 31 32 33 33 33 33 33 36 32 29 32 28 25 27 32 33 33 27 21 24 33 25 27 27 29 31
44 43 41 39 38 36 36 37 39 39 38 38 38 38 37 38 36 37 35 34 34 35 37 37 36 37 36 33 28 27 27 29 26 31 25 23 29 26 25 29 28 28 28 26 29
53 51 49 47 45 43 42 41 41 40 37 34 32 29 28 30 34 38 38 37 38 40 39 37 38 36 25 24 23 28 26 25 25 30 29 30 32 28 30 30 28 26 27 26 28
60 58 57 56 53 51 49 47 45 44 41 37 35 31 29 27 27 29 31 35 35 35 33 37 33 21 24 26 28 25 21 23 28 30 34 33 32 31 29 29 27 24 23 24 28
66 67 64 61 57 57 55 53 52 49 48 42 39 39 33 32 30 31 32 28 27 29 31 28 22 26 25 27 27 20 20 22 28 32 35 34 28 30 25 26 24 22 26 24 30
70 70 69 69 63 61 60 57 56 54 53 49 42 41 39 38 35 32 32 30 29 29 27 31 29 32 26 29 21 24 21 24 29 32 32 30 28 28 26 25 23 24 24 25 28
77 75 74 73 70 67 65 62 59 58 57 54 46 44 43 43 34 33 30 34 32 27 31 24 29 22 29 22 25 24 26 27 30 30 31 24 29 24 25 20 19 20 22 25 19
88 84 81 78 74 73 70 68 65 61 63 61 54 49 45 43 41 40 39 37 33 34 31 29 27 28 29 29 30 28 29 28 27 30 32 23 26 19 17 18 14 16 21 18 14
91 92 89 84 81 79 77 75 72 72 66 67 61 53 50 45 43 43 43 41 37 34 34 31 31 32 30 31 25 28 27 26 28 26 23 24 24 17 19 19 16 18 17 16 15
81 91 93 92 88 86 83 81 83 71 73 71 66 62 60 50 46 43 44 46 44 39 32 33 37 27 24 24 22 26 26 25 24 21 15 24 20 11 21 18 17 18 12 11 11
53 61 79 92 92 91 91 90 74 72 75 72 71 71 64 60 54 48 43 44 44 42 40 36 32 26 28 25 27 29 27 24 25 25 27 18 17 15 16 17 16 15 11 11 10
45 46 54 63 77 80 89 90 78 75 79 78 77 74 70 65 60 55 50 48 44 42 42 39 35 32 27 30 34 31 27 25 23 25 21 11 9 9 11 15 16 15 12 11 12
40 40 38 46 55 63 78 88 83 83 83 82 81 76 73 70 63 58 54 49 46 41 39 41 38 37 33 39 36 33 28 24 27 24 17 12 8 17 14 17 15 17 13 13 11
38 34 30 34 45 54 63 81 85 90 90 86 85 79 74 70 67 62 57 52 50 46 41 37 38 39 34 34 35 37 30 29 28 27 24 19 11 19 14 18 13 15 15 11 9
27 26 26 23 33 41 47 64 79 91 90 90 88 81 76 73 64 61 58 56 53 49 45 42 48 44 39 45 43 40 34 31 29 29 24 17 7 17 17 19 14 15 14 8 4
28 29 28 28 31 29 40 53 67 86 89 89 90 88 80 78 72 62 60 61 57 54 49 46 46 45 45 39 35 37 34 31 30 29 22 20 14 19 17 20 15 14 14 9 6
26 26 25 23 26 32 27 35 52 75 84 84 86 82 80 77 72 66 63 63 59 56 52 50 50 49 45 40 41 38 35 32 33 26 26 17 13 17 18 20 18 12 15 9 9
3 6 10 19 19 21 26 31 45 61 81 78 80 76 75 79 70 67 63 65 62 60 58 54 50 50 49 45 44 41 39 36 33 25 27 25 18 21 23 23 17 13 15 11 13
7 10 9 18 17 14 16 20 34 49 65 77 67 63 77 75 74 75 73 71 67 64 59 57 54 53 52 47 43 44 42 37 34 26 27 21 13 27 28 25 19 16 13 13 15

GFSSW_500_spd_003.txt.gz
Wind_Speed
39 49 54 67 73 64 57 59 45 44 43 44 42 39 35 37 35 33 31 33 39 39 42 38 31 28 29 31 35 35 34 28 20 18 22 19 20 25 33 27 33 33 31 32 33
29 35 40 50 66 60 56 57 56 55 49 47 47 45 43 43 44 40 43 35 35 37 38 30 34 31 31 37 38 37 36 28 23 26 28 26 23 21 31 27 30 28 29 30 35
20 24 30 35 42 61 62 59 60 58 58 56 55 53 50 48 58 47 47 44 44 38 40 38 41 38 36 44 45 41 32 29 28 29 30 29 24 23 28 28 22 35 35 33 30
23 22 22 25 31 42 56 61 69 69 67 66 62 63 59 56 54 54 53 58 58 53 54 47 44 47 40 43 41 44 37 29 31 28 32 32 29 29 31 31 31 32 33 33 30
28 26 26 26 27 35 45 57 62 64 65 65 66 68 73 68 59 61 54 49 54 61 51 46 43 43 44 42 40 41 37 29 29 31 33 39 35 31 27 30 29 30 30 27 29
35 32 32 32 33 34 32 33 38 43 49 52 55 55 59 59 52 39 36 32 35 38 43 48 48 42 44 40 41 38 37 28 28 31 31 35 26 36 29 40 35 29 26 29 29
40 39 37 38 38 39 39 40 41 39 34 37 38 29 29 29 37 36 36 30 29 29 32 33 33 39 35 36 36 37 32 30 29 29 33 34 29 34 35 41 32 25 27 29 30
38 41 42 42 42 41 41 42 42 41 41 43 42 39 32 30 35 31 35 32 30 30 30 30 28 30 33 31 36 30 29 28 22 26 35 34 27 19 35 33 30 26 28 28 30
43 41 40 43 46 46 46 46 47 47 46 44 42 41 34 31 35 38 37 32 31 30 29 32 31 28 28 35 28 30 27 25 23 23 31 36 30 17 26 29 29 30 31 29 29
50 49 47 45 44 43 45 48 47 48 49 48 48 44 40 36 39 41 38 35 34 33 32 32 32 32 35 29 26 23 21 24 23 19 27 29 29 23 25 29 29 33 30 28 29
57 56 54 53 52 49 45 45 44 44 41 41 44 43 41 37 37 41 45 38 37 38 37 31 36 37 26 25 22 22 23 24 24 22 25 32 33 26 25 33 33 27 28 27 28
60 61 61 60 57 58 56 53 52 49 46 41 39 35 36 29 31 33 42 43 42 39 34 37 40 32 28 28 27 27 28 26 23 22 30 32 30 29 32 29 23 25 26 27 29
66 66 65 64 64 62 62 61 58 57 56 48 43 40 35 35 33 31 33 34 35 36 36 37 31 28 29 26 28 28 28 24 23 21 29 29 28 23 22 24 25 25 24 26 26
76 74 71 69 69 67 67 66 63 62 63 55 49 45 40 39 37 32 33 33 33 29 33 32 31 28 29 31 28 30 24 23 27 27 25 21 25 24 20 22 23 24 20 21 23
81 82 81 77 75 74 72 69 67 64 64 59 57 51 49 46 38 35 32 34 33 31 32 25 31 29 31 27 28 27 26 24 29 30 27 24 24 17 21 18 20 17 18 17 20
84 85 85 85 83 82 77 74 73 71 70 65 64 54 53 49 47 44 40 35 34 35 31 29 27 28 28 25 31 30 30 31 29 26 26 20 20 14 12 20 19 16 17 21 19
67 70 79 87 87 87 84 81 78 79 65 70 68 61 55 53 50 51 47 44 41 39 37 33 32 29 31 33 33 34 32 30 24 19 19 15 18 15 16 21 20 18 19 19 16
53 57 60 65 74 80 85 86 86 72 67 64 70 70 58 54 51 51 50 48 45 39 36 34 36 37 32 32 30 30 26 23 17 14 14 23 25 6 17 20 18 15 16 15 12
38 42 46 47 50 57 65 83 85 71 70 69 50 68 68 60 54 54 52 48 45 42 42 39 34 27 35 30 32 31 30 20 22 25 18 17 19 23 25 16 17 15 12 12 14
37 35 38 39 41 46 53 77 81 78 74 45 62 44 47 63 60 58 53 49 45 45 41 32 36 33 31 30 33 35 25 23 22 22 21 16 16 11 19 9 20 16 15 12 14
28 29 36 37 40 45 49 66 71 78 68 64 55 56 44 41 48 56 56 50 46 44 41 41 37 34 34 41 32 35 35 29 25 21 14 12 10 20 19 19 11 18 15 13 13
15 16 29 37 32 40 35 37 50 70 61 71 79 75 65 43 42 47 57 56 53 48 46 38 48 38 41 37 33 35 35 30 30 23 21 17 13 27 28 15 9 18 15 10 12
21 16 17 20 26 23 24 34 45 62 67 75 80 78 72 61 47 43 51 47 46 53 51 40 49 43 36 41 43 43 37 36 33 29 22 20 15 19 29 20 17 15 16 11 10
22 19 20 26 27 26 23 30 37 46 71 76 81 75 83 78 70 48 46 42 38 55 48 41 43 45 48 42 40 42 41 38 34 33 27 24 15 25 25 16 16 14 15 13 10
16 18 18 20 25 29 30 28 28 35 48 74 81 74 71 73 62 59 40 44 50 57 52 50 50 48 42 33 38 40 38 38 38 33 30 20 20 22 19 15 15 23 18 14 10
11 10 9 13 13 20 34 29 28 30 40 62 76 72 67 70 63 45 41 44 49 56 55 53 50 47 47 44 36 47 45 41 37 36 33 28 23 16 20 21 17 23 20 13 11
10 8 10 4 13 17 18 30 31 29 39 42 52 68 67 71 76 71 59 54 46 48 54 58 54 52 51 48 48 41 48 43 41 38 32 32 20 20 21 17 25 24 21 14 12

GFSSW_500_spd_006.txt.gz
Wind_Speed
38 40 43 46 56 61 61 64 63 62 52 48 48 48 48 47 49 48 43 39 38 38 40 40 39 31 32 32 24 26 30 29 30 19 21 18 18 25 28 35 37 40 37 31 30
33 38 38 42 51 59 65 68 65 65 60 55 48 50 51 46 47 47 44 39 32 34 33 38 36 37 37 36 29 32 37 32 28 20 29 30 31 29 29 26 30 37 48 40 34
29 27 28 32 40 49 56 59 62 59 54 55 56 55 50 50 47 43 40 37 36 39 42 46 45 44 33 34 32 37 39 35 30 27 33 31 29 28 24 33 34 37 41 47 32
29 25 25 26 30 37 47 54 64 68 62 60 59 58 58 58 58 53 46 41 44 46 46 49 53 53 52 47 43 45 40 37 32 32 31 27 26 27 30 31 34 40 35 39 42
32 31 25 31 29 28 35 43 49 58 67 60 64 67 66 69 66 57 57 54 52 53 53 53 59 59 59 50 36 41 39 35 36 36 29 26 25 28 31 30 31 41 39 36 29
36 36 34 36 37 35 33 33 36 45 53 64 64 67 69 65 58 62 62 61 63 62 58 57 48 44 47 43 42 44 37 34 39 29 23 25 28 33 23 32 36 33 32 25 26
42 42 44 41 40 41 40 40 38 31 33 39 49 52 54 46 53 61 69 67 50 37 36 29 30 35 37 39 42 38 37 37 34 27 24 25 31 29 23 31 31 34 31 27 28
42 42 42 43 45 44 44 45 45 43 43 46 44 44 39 31 38 35 30 26 26 31 30 31 29 33 37 36 33 33 35 34 21 23 23 30 35 34 24 25 33 35 31 33 31
49 48 48 47 44 46 47 46 47 48 49 48 46 46 34 30 30 31 37 31 33 33 32 29 32 31 31 32 28 28 29 27 20 18 22 27 38 35 27 22 29 32 32 35 36
52 52 52 52 51 50 48 47 50 49 51 50 48 45 40 35 36 36 35 34 35 35 34 30 29 30 28 31 20 20 21 19 16 11 20 32 30 31 34 25 31 32 38 39 30
58 57 56 56 57 55 54 53 51 51 51 51 50 48 46 43 39 39 41 42 38 39 34 33 34 33 25 17 15 18 15 19 14 16 21 18 23 32 35 31 28 27 37 33 35
66 65 63 62 60 60 60 58 59 58 53 46 44 44 37 44 37 40 44 44 41 41 37 37 38 28 25 25 26 25 22 22 22 23 28 28 28 35 31 20 20 23 23 26 33
74 74 72 69 67 64 63 64 63 63 62 53 46 42 32 38 29 32 37 37 37 38 42 39 27 28 28 29 30 30 26 23 21 23 24 24 31 28 18 21 25 25 29 22 25
79 80 80 79 75 72 69 68 69 70 68 60 54 48 43 39 36 29 35 36 37 33 36 35 31 32 30 33 29 29 20 16 23 25 27 19 28 24 22 18 23 31 30 20 21
76 79 81 82 82 80 76 73 72 70 70 63 57 54 51 48 37 34 34 36 33 30 34 24 30 32 30 30 27 25 17 21 28 26 27 29 30 16 11 13 20 30 39 25 18
58 61 66 72 80 83 83 78 77 74 70 64 60 61 58 53 47 42 39 40 33 35 33 30 27 29 27 24 25 23 22 28 28 25 30 22 19 11 5 16 23 30 33 22 21
53 55 57 57 58 66 77 78 73 80 65 63 58 68 60 55 51 49 49 46 44 42 37 35 33 28 28 30 27 25 32 31 28 27 26 12 15 15 16 26 34 24 16 23 18
34 32 35 39 43 51 56 59 79 76 69 60 47 41 57 63 56 49 55 49 47 42 36 37 37 34 28 27 30 33 32 29 28 22 8 16 22 17 27 26 21 18 17 20 16
37 37 33 32 33 37 48 56 75 75 69 64 37 39 42 51 59 55 53 54 50 47 43 39 35 28 30 30 32 34 31 23 26 20 24 13 12 16 27 25 30 22 17 15 17
35 31 30 29 32 35 44 52 60 67 60 60 64 46 43 32 37 50 55 56 52 49 44 39 32 31 23 30 34 32 26 29 26 25 25 19 16 18 26 26 23 24 24 15 15
30 16 18 22 28 34 35 32 35 46 57 60 67 65 53 44 36 43 54 51 50 47 48 42 34 31 31 42 35 33 37 35 27 21 17 12 7 19 31 23 30 32 25 14 15
17 10 13 14 18 32 30 23 33 47 57 62 66 81 64 53 48 54 44 54 52 47 49 47 47 38 39 35 35 29 31 34 29 24 24 20 16 26 23 27 31 28 17 15 13
9 7 11 11 21 20 21 30 34 39 46 70 62 79 75 62 52 53 47 38 50 49 51 45 53 47 35 33 43 38 35 33 33 31 23 21 18 24 28 31 22 29 17 10 10
10 8 10 18 26 26 22 24 24 34 47 75 62 71 80 70 62 54 50 42 35 39 52 45 49 53 49 42 42 40 38 35 34 36 32 26 14 22 32 24 27 22 11 10 10
8 8 9 14 24 27 31 26 22 20 27 60 60 63 68 81 75 59 55 56 52 44 42 42 51 49 44 40 39 41 40 36 37 35 33 22 24 22 25 21 19 24 22 13 9
7 9 13 14 16 7 16 29 28 20 22 59 61 59 62 79 75 73 65 58 54 50 48 49 52 47 45 41 38 39 41 36 34 35 36 28 26 21 21 21 14 28 26 17 10
9 10 8 10 13 11 12 17 29 26 23 29 61 65 68 79 70 77 73 62 63 60 52 48 53 53 52 44 43 40 40 40 36 34 35 32 27 25 19 22 22 29 25 24 10

GFSSW_500_spd_009.txt.gz
Wind_Speed
35 34 34 42 50 54 54 61 63 59 60 55 54 57 52 45 48 43 41 36 42 38 35 33 32 32 33 31 28 32 38 31 25 26 24 18 18 28 27 34 39 42 40 37 36
41 41 38 39 44 49 54 55 57 62 63 65 65 59 57 56 55 47 44 43 43 46 43 43 34 32 33 31 33 37 41 27 29 27 28 22 22 24 28 29 35 37 41 39 32
37 39 39 40 43 47 50 50 53 55 60 62 62 63 64 65 59 47 49 47 47 46 38 39 35 38 40 39 35 40 41 35 37 35 24 21 17 21 26 31 30 33 35 36 33
30 32 40 40 38 40 43 45 47 54 61 69 70 65 70 63 64 59 50 45 43 44 42 40 40 42 45 47 42 51 51 46 28 28 23 25 23 18 28 26 28 35 31 31 32
38 31 29 38 39 39 41 41 43 47 53 61 65 65 63 65 59 55 54 52 47 47 46 43 46 44 51 50 52 55 56 43 34 31 29 29 22 23 28 20 29 34 32 27 26
41 42 43 43 43 44 36 38 41 39 42 46 56 63 64 59 51 54 53 56 56 58 59 53 53 51 58 55 58 49 32 26 30 33 32 25 25 26 21 17 28 32 30 29 29
45 43 45 44 45 45 44 38 42 45 39 39 46 54 51 48 55 57 64 66 63 61 64 60 60 60 57 62 38 28 27 28 34 35 20 23 26 20 19 20 28 35 28 27 24
49 50 49 50 47 47 47 47 46 47 48 47 43 40 40 39 46 53 57 60 64 65 64 66 63 44 31 35 30 29 25 25 23 18 7 17 20 17 25 25 25 31 27 32 36
51 51 52 53 53 54 54 50 47 48 48 50 49 44 30 27 27 41 54 56 53 57 45 35 33 35 39 30 28 24 20 20 9 7 7 10 20 19 26 35 25 27 33 30 34
59 59 58 57 56 56 57 56 55 51 50 50 51 46 37 34 34 36 34 27 28 27 32 35 35 35 32 30 17 18 21 18 8 5 10 14 29 24 28 30 31 31 37 37 34
67 66 66 65 64 62 59 58 60 59 56 49 48 46 45 44 37 37 38 37 32 36 31 34 39 34 25 22 22 22 24 20 15 6 17 22 17 15 17 26 26 28 22 23 32
74 73 72 71 70 68 65 62 63 65 61 56 51 43 44 49 43 38 42 46 44 39 38 41 37 29 25 27 25 24 25 22 16 12 17 22 21 22 24 28 29 27 24 26 22
79 79 79 78 76 75 72 69 67 68 66 60 54 50 40 45 45 40 43 46 49 49 46 41 31 30 31 31 30 26 26 17 22 17 25 25 32 34 31 29 26 22 25 28 27
79 76 74 76 79 79 78 75 73 71 69 63 59 53 49 45 42 33 35 42 50 51 48 45 40 38 37 34 30 29 20 20 22 18 25 26 31 26 20 20 15 12 27 30 34
51 53 51 54 64 73 78 78 75 72 71 65 58 57 53 53 42 38 31 36 37 34 37 34 29 36 36 30 28 24 22 20 13 10 17 27 30 13 16 13 13 18 26 32 37
42 45 47 48 48 54 62 71 74 71 72 68 64 58 57 54 51 45 38 40 35 35 35 29 25 34 31 27 27 22 22 18 11 17 32 26 26 7 7 9 18 26 30 35 38
44 44 44 43 39 45 51 56 61 75 69 66 55 53 57 50 46 47 51 46 41 40 36 31 31 28 29 32 30 23 15 23 26 31 22 15 19 6 8 7 17 25 27 26 16
30 30 28 29 30 32 36 47 62 68 66 62 43 39 58 43 52 41 44 50 47 37 36 34 36 33 29 32 31 26 27 30 30 28 9 7 10 15 11 11 20 24 23 27 17
31 30 30 32 34 34 32 38 49 51 59 56 45 48 40 29 26 22 48 42 46 43 40 38 35 28 31 28 30 30 32 20 28 24 16 12 9 16 13 15 22 29 27 26 28
34 29 29 26 27 32 34 29 25 38 40 46 56 61 54 51 41 40 28 52 45 45 42 39 35 28 28 29 31 33 26 33 34 32 27 21 19 17 22 20 27 30 27 31 20
32 18 13 14 14 18 21 20 16 27 35 45 68 63 60 59 54 52 50 49 48 46 44 41 40 32 31 36 34 34 38 39 32 25 21 18 16 16 17 23 26 27 27 29 21
23 9 5 11 12 8 9 18 20 26 33 46 64 71 62 63 64 54 50 56 40 42 49 45 44 43 38 32 29 32 39 40 35 28 23 16 9 14 16 21 24 22 21 25 13
13 6 5 9 8 14 19 17 22 25 28 40 54 75 63 62 64 54 56 55 50 39 48 43 49 47 41 39 34 35 33 34 37 29 24 22 17 27 24 24 26 20 20 16 7
9 4 4 7 9 19 22 22 19 22 29 35 38 58 62 65 68 64 65 58 54 46 51 37 47 54 50 44 40 39 36 34 39 34 29 26 15 26 24 25 20 19 18 10 7
10 3 4 8 13 18 24 26 25 22 23 22 36 47 59 65 73 70 71 61 57 55 51 40 47 54 50 44 42 40 36 35 34 33 34 24 20 27 23 19 25 26 18 3 9
8 7 8 12 11 16 4 10 20 26 16 18 27 42 61 62 64 68 71 65 62 60 55 46 48 53 54 52 48 45 41 38 31 34 36 30 23 27 21 23 27 28 23 3 9
9 10 9 8 8 2 9 11 10 20 26 18 26 39 50 58 57 66 74 73 67 64 60 54 56 50 58 54 48 48 51 40 32 31 32 33 24 25 31 28 28 28 21 9 3

GFSSW_500_spd_012.txt.gz
Wind_Speed
34 35 37 38 39 41 44 51 55 55 58 59 59 57 53 50 51 53 47 35 43 45 41 40 40 34 33 33 34 40 44 31 27 30 30 29 29 28 27 26 32 35 34 35 30
34 36 40 42 41 43 40 43 49 56 58 58 57 59 56 55 54 50 40 44 45 45 45 40 36 39 37 35 39 42 41 33 31 30 33 34 35 26 23 23 28 36 39 36 29
36 35 36 38 45 46 46 45 47 49 54 58 58 61 61 61 59 54 57 47 49 46 44 43 38 46 44 41 37 39 45 39 39 39 37 42 26 17 18 25 26 31 34 30 28
36 36 40 39 39 42 46 48 49 51 54 54 57 60 60 58 60 57 59 52 53 52 47 45 45 47 46 45 37 48 46 45 42 45 48 34 28 18 17 24 26 31 30 25 23
39 41 41 42 39 37 40 47 48 49 51 53 56 58 61 59 54 56 58 55 55 54 49 49 51 44 51 41 43 52 47 48 49 50 37 31 26 17 17 22 25 27 27 26 24
42 41 42 43 47 46 42 41 47 50 51 52 53 55 58 59 54 59 60 62 61 57 53 51 48 45 56 52 53 49 53 52 52 36 27 26 16 21 13 19 21 24 26 28 26
43 46 47 49 49 49 53 52 50 54 55 54 51 48 52 46 50 54 62 62 61 57 58 57 57 57 57 56 59 59 54 48 29 26 16 22 21 14 12 19 14 18 22 26 26
49 49 50 51 52 53 54 52 55 53 53 57 54 49 41 37 37 48 56 59 59 59 60 57 56 62 66 63 62 54 45 21 17 20 6 23 12 13 13 14 14 22 22 28 32
57 58 59 58 57 56 55 57 57 55 55 56 51 46 36 37 31 33 50 57 58 61 62 60 66 68 67 62 56 41 27 21 11 15 16 24 17 16 13 16 16 15 21 30 31
67 67 67 67 66 64 62 60 58 59 59 56 52 51 44 43 39 36 37 45 58 61 64 64 66 66 63 55 33 29 25 21 16 13 22 23 15 12 16 13 13 14 17 28 28
77 75 75 75 74 72 69 68 65 63 60 57 55 49 49 49 45 43 37 39 37 40 47 49 57 58 40 28 27 30 29 25 17 23 26 22 18 10 8 17 15 16 28 22 29
82 83 81 79 78 78 77 75 72 68 65 59 56 54 50 47 47 45 45 45 41 33 31 36 37 26 28 30 31 31 29 28 20 25 26 21 23 15 10 19 21 26 22 25 29
73 74 77 78 76 77 78 79 78 73 70 64 58 56 53 52 49 45 46 46 46 44 39 33 28 30 30 31 33 32 31 22 21 26 30 24 25 22 15 21 26 27 23 25 26
51 50 51 54 63 67 72 76 78 77 75 69 65 60 57 54 55 44 44 48 49 48 46 43 41 36 37 37 36 40 24 22 25 26 25 24 25 23 21 21 25 21 17 21 22
35 36 35 34 34 41 55 58 68 73 74 66 67 68 63 59 54 46 43 41 46 48 50 43 42 44 42 38 36 29 28 25 22 26 25 31 29 10 15 17 17 11 10 19 27
34 36 37 38 38 40 38 42 46 61 68 57 67 67 67 61 56 53 48 47 39 38 43 47 46 45 41 42 40 29 33 28 30 27 34 21 24 5 8 10 7 12 15 19 25
28 30 30 29 32 34 36 39 41 54 55 48 55 65 60 64 55 54 55 52 46 46 45 42 43 43 43 42 42 41 39 36 36 39 24 16 16 6 7 11 12 11 12 17 22
29 31 31 30 29 27 24 26 36 37 42 35 40 40 52 52 49 41 51 54 48 43 40 34 35 36 33 39 42 45 41 40 37 29 17 15 18 10 5 13 12 12 11 16 20
33 35 35 32 28 26 29 33 29 28 40 43 46 49 49 61 55 46 48 56 50 44 40 38 36 30 31 31 39 39 37 27 30 25 23 16 18 15 12 9 13 13 17 17 24
35 34 31 20 20 23 25 30 31 25 22 41 57 45 45 60 58 57 54 46 52 51 47 38 35 29 23 32 31 32 31 35 33 25 26 21 23 15 13 13 12 14 16 21 24
31 24 16 7 8 6 10 15 24 27 24 30 55 50 47 61 59 60 67 59 49 46 48 47 42 34 36 34 34 36 42 41 30 25 21 17 17 13 15 20 16 12 16 23 27
23 13 5 3 6 9 4 8 15 18 24 28 49 58 51 60 65 63 67 70 67 57 51 51 48 39 32 34 30 30 33 33 30 32 25 20 17 15 18 18 11 11 15 20 24
17 10 4 4 10 8 9 6 5 11 19 22 43 48 54 54 64 65 70 71 70 66 59 49 54 47 42 41 39 40 37 36 32 32 26 23 17 19 19 15 12 10 12 16 22
14 8 6 7 7 8 12 16 16 15 10 17 28 45 47 57 66 73 69 71 69 70 66 60 58 55 51 46 39 40 41 38 39 36 29 25 21 23 18 14 12 8 4 11 19
15 5 6 7 11 15 15 18 17 18 17 15 23 35 52 58 57 76 71 67 67 67 69 67 62 59 51 45 41 39 37 38 39 30 32 24 23 22 19 18 14 16 10 8 12
20 11 9 8 10 8 7 6 7 11 15 19 18 26 34 54 58 73 64 70 64 65 67 68 62 56 54 50 46 46 43 38 36 33 27 24 25 22 23 21 24 16 7 5 11
21 19 11 12 9 5 5 10 10 8 11 20 19 21 30 49 66 59 62 68 69 65 66 70 65 60 58 55 50 55 51 46 37 33 32 29 22 26 27 25 22 16 8 3 5

GFSSW_500_spd_015.txt.gz
Wind_Speed
29 29 31 32 33 35 38 42 47 51 55 58 58 59 61 58 60 51 46 39 51 48 46 37 31 38 42 40 38 43 46 38 32 34 32 26 30 30 37 43 40 37 35 30 32
35 35 36 39 41 42 44 43 43 45 49 54 60 62 62 64 60 53 42 46 52 51 49 38 42 46 46 46 50 43 44 37 36 37 34 31 31 32 41 44 37 31 29 35 31
35 37 40 42 42 43 45 47 48 47 46 47 52 59 63 61 57 51 50 49 52 56 49 44 44 49 48 49 48 48 42 39 42 39 41 40 37 38 45 36 27 32 34 33 24
37 38 40 44 45 47 46 47 47 52 52 49 47 49 56 63 65 57 53 52 54 55 55 53 45 51 52 47 41 49 47 47 44 43 46 44 47 48 36 32 27 31 31 24 21
37 40 42 44 47 48 50 51 49 49 51 53 55 56 56 55 55 58 57 58 59 53 57 57 58 52 55 47 48 57 49 49 49 49 46 49 49 53 31 28 29 33 27 18 25
39 42 45 47 49 51 53 53 53 51 50 55 56 56 58 53 46 52 57 60 65 63 64 63 58 52 61 52 54 52 53 52 50 48 48 50 52 35 19 23 33 32 23 18 20
46 48 49 50 51 53 55 54 57 57 55 50 51 56 56 44 42 44 56 57 61 66 67 64 61 61 63 54 58 58 59 57 51 45 44 52 41 26 18 24 29 26 18 19 17
54 56 58 58 59 59 58 58 59 60 61 60 56 55 39 43 48 46 42 49 58 62 65 63 63 66 69 63 61 59 60 55 40 44 33 39 30 19 22 30 26 17 16 17 14
62 64 66 68 68 68 66 65 63 62 62 62 59 57 48 50 51 43 44 43 49 58 64 64 68 71 69 68 66 63 55 45 39 38 29 34 31 14 30 28 16 18 17 13 15
70 73 77 78 79 78 76 74 71 68 65 63 63 60 56 56 50 54 47 46 43 50 63 67 69 69 66 68 61 60 53 49 36 17 29 35 37 22 27 26 20 14 13 13 19
82 85 84 85 86 87 86 83 81 77 71 68 65 61 62 60 55 53 50 50 47 43 58 67 68 61 61 58 57 55 56 48 24 20 30 35 37 25 25 25 20 20 16 13 17
93 90 82 77 78 87 88 88 87 85 80 75 71 66 62 64 61 56 52 53 50 41 37 48 55 52 55 59 60 56 52 28 21 19 34 33 33 26 27 26 23 18 11 13 13
66 60 57 55 53 59 66 80 86 88 86 76 77 72 66 67 64 58 52 48 51 50 44 39 28 37 42 48 52 43 26 18 17 23 38 35 34 27 27 28 20 12 12 11 12
46 42 38 38 38 38 45 52 58 74 85 81 72 77 75 71 68 57 56 51 50 52 47 45 37 33 33 29 26 27 21 21 22 30 37 40 38 29 30 24 17 13 12 6 8
37 35 35 35 35 36 34 35 39 46 63 61 74 78 77 75 70 60 56 52 47 49 49 46 41 40 36 30 31 24 24 26 26 31 39 40 43 20 27 14 15 11 4 6 7
32 30 29 30 33 33 33 36 36 35 47 32 57 58 74 75 73 69 60 56 51 47 46 50 48 43 38 39 37 31 28 30 33 37 47 34 39 11 15 16 11 7 4 6 8
35 35 35 33 32 30 28 29 35 40 28 33 42 43 67 69 70 73 64 63 58 53 51 53 54 48 43 44 44 42 39 40 42 43 50 28 40 14 19 17 15 10 4 9 10
36 39 40 37 35 33 32 31 31 30 35 32 40 38 50 57 60 71 69 61 59 52 50 45 50 53 47 48 47 42 42 44 48 49 41 30 36 18 24 20 9 8 4 6 10
36 38 38 36 33 32 29 32 29 25 33 37 38 32 48 49 52 60 67 66 60 55 54 47 45 41 41 43 43 43 48 45 45 42 37 35 24 28 24 11 9 5 5 7 12
37 31 29 18 13 10 14 22 29 29 33 27 40 43 40 40 52 56 62 69 69 62 56 51 43 41 34 37 37 38 48 45 46 44 42 32 28 27 19 12 10 6 5 8 16
33 25 19 5 6 5 5 7 16 29 36 28 28 52 38 41 53 61 66 71 72 67 62 56 49 40 39 40 37 43 47 45 41 39 36 28 26 20 19 15 9 5 4 11 14
30 18 7 6 5 11 12 11 10 11 22 25 27 53 47 45 52 59 71 75 74 71 69 61 56 44 38 41 36 38 41 39 38 32 30 28 25 25 21 11 7 7 4 12 12
29 14 4 7 2 5 3 11 8 7 6 20 27 43 56 49 51 57 65 73 76 76 74 69 60 51 44 45 42 44 38 36 34 35 34 30 27 27 19 14 11 8 4 7 12
28 17 10 8 12 11 12 14 15 14 8 8 19 22 48 53 53 57 63 68 71 77 77 72 66 57 50 46 42 43 44 42 40 37 30 27 25 25 17 15 13 8 5 6 9
25 19 14 12 12 13 11 7 9 6 10 13 10 18 23 52 55 61 61 65 59 74 76 74 68 61 53 47 46 44 40 41 38 32 33 23 26 24 20 16 11 9 5 8 9
25 24 17 12 15 13 7 2 15 7 5 10 14 13 19 24 46 52 57 70 53 67 73 73 70 67 58 51 48 48 45 42 38 36 32 28 27 26 22 19 16 10 7 8 5
22 21 21 15 12 10 11 11 14 5 5 9 12 16 17 19 34 55 56 59 52 66 72 71 70 69 62 55 50 56 51 45 39 37 32 31 28 28 25 19 13 11 9 7 4

GFSSW_500_spd_021.txt.gz
Wind_Speed
29 30 30 30 31 32 33 38 46 47 48 49 52 60 58 57 60 60 55 45 47 56 56 52 45 40 35 40 40 40 45 42 34 35 32 32 33 38 40 40 40 37 38 40 43
28 30 32 35 35 36 36 35 39 46 48 49 47 51 59 61 65 69 57 59 59 65 62 54 55 54 48 37 50 49 51 47 36 36 36 37 37 39 40 41 34 38 38 43 48
32 34 36 38 40 40 41 41 41 41 45 46 48 49 51 53 54 58 65 66 65 66 59 58 58 55 50 47 45 54 54 43 39 38 38 37 43 48 44 39 31 38 37 43 50
33 35 38 39 40 41 42 43 44 45 46 46 47 47 48 50 52 53 56 55 55 59 62 60 57 54 51 48 40 47 53 48 43 41 46 41 40 42 45 32 33 41 45 45 49
33 35 36 38 40 42 44 46 48 49 49 50 51 53 53 52 49 52 51 52 55 59 61 63 62 58 55 48 46 50 50 51 47 44 47 44 41 40 40 36 42 44 44 49 50
38 40 42 43 44 46 47 47 49 51 53 55 56 55 54 53 53 56 58 54 52 57 62 66 66 60 60 57 54 54 54 53 52 50 44 45 41 43 31 35 42 47 49 51 47
43 45 47 49 50 51 53 54 55 55 55 56 58 59 57 52 55 53 57 56 55 52 56 65 67 66 64 62 58 58 60 60 59 50 49 47 45 42 38 39 45 46 50 51 40
46 48 51 53 55 56 58 59 59 60 62 62 62 61 59 60 58 57 58 57 56 59 53 56 66 67 66 66 63 61 64 67 59 51 51 48 41 44 39 41 44 45 48 45 35
53 56 58 59 60 61 62 64 64 65 67 68 68 67 64 64 63 63 61 59 58 57 59 61 62 65 66 67 68 66 65 61 58 55 54 53 48 48 42 40 47 48 42 34 31
53 57 60 62 64 66 68 69 70 71 70 71 72 71 72 72 71 65 64 63 60 59 62 60 58 58 58 64 57 57 59 61 59 59 57 58 52 49 44 42 48 47 35 31 29
55 60 62 66 69 71 73 75 78 78 79 79 78 80 76 81 78 75 70 67 65 64 61 58 62 59 53 53 56 59 63 64 61 60 61 60 54 52 48 41 44 42 30 28 24
63 66 70 74 77 79 82 81 82 83 81 79 81 83 79 83 82 82 80 73 70 68 65 64 61 42 48 48 51 50 53 56 56 57 58 58 55 56 51 44 39 34 29 23 20
70 74 77 77 74 73 67 61 60 63 76 61 64 73 73 79 83 87 88 82 73 72 71 67 50 49 49 46 47 44 43 41 46 49 54 53 51 51 43 39 31 28 24 22 22
76 74 66 57 53 52 50 50 50 50 55 48 50 53 60 70 76 83 86 84 82 73 69 66 57 60 51 51 49 43 36 36 36 37 41 46 53 48 32 33 27 22 21 21 24
66 58 51 47 44 45 45 45 44 43 45 39 42 40 43 51 63 71 77 81 77 73 69 64 64 62 56 48 43 33 30 24 24 31 39 43 52 37 28 27 22 22 21 26 18
52 47 43 43 43 43 44 44 42 40 39 34 34 31 31 35 42 48 65 74 73 66 65 63 62 58 50 47 43 38 32 30 30 34 44 33 41 32 15 17 21 19 24 19 22
45 43 43 44 43 42 40 38 36 37 34 34 30 29 30 30 29 33 51 64 69 70 69 65 65 61 57 53 49 44 38 35 35 40 39 26 39 4 12 11 15 22 26 22 23
41 41 39 44 38 30 26 26 26 28 30 32 29 29 27 28 21 24 38 53 61 67 65 67 66 63 58 52 48 47 38 35 35 32 36 26 34 19 14 16 13 16 17 23 19
36 36 44 34 19 12 12 15 13 13 20 28 28 29 25 24 29 19 29 49 58 67 69 66 65 61 57 50 46 44 43 33 32 36 25 35 22 13 15 12 18 19 15 21 15
32 34 37 22 14 10 9 12 12 17 17 14 20 24 23 28 31 26 32 36 56 68 70 67 67 64 56 50 47 45 36 36 40 41 32 33 27 15 13 18 19 11 19 21 21
29 32 32 23 20 9 10 10 11 16 17 16 14 20 20 29 38 25 39 21 36 62 66 65 66 64 62 57 51 51 50 46 44 39 34 29 21 10 17 18 17 14 21 24 20
28 33 30 25 20 18 15 14 18 19 18 15 10 9 21 29 33 34 31 33 35 51 64 68 67 60 57 57 48 46 43 42 38 36 33 28 20 13 19 21 18 19 21 19 16
29 35 31 23 16 14 13 14 14 15 16 11 10 8 14 22 25 34 27 51 30 43 63 67 68 61 56 56 53 50 48 45 48 43 38 30 20 15 22 27 21 20 22 17 12
28 32 33 25 18 10 13 11 11 18 12 10 8 6 3 12 16 26 23 35 39 43 48 67 67 65 59 53 52 48 49 50 49 47 39 30 22 17 22 27 24 24 21 14 10
30 30 31 30 21 12 11 6 16 16 12 11 7 3 1 6 5 11 24 34 35 42 51 62 64 64 59 57 51 51 48 47 47 43 36 28 20 27 27 27 26 25 21 11 9
28 31 35 29 22 19 14 14 16 17 11 9 12 8 6 4 7 13 20 29 29 36 44 61 59 62 56 54 53 51 46 48 44 39 29 25 29 33 32 27 25 24 19 12 10
21 27 29 34 32 27 23 18 15 11 13 10 8 7 9 9 8 11 16 20 30 32 41 58 61 62 56 56 54 54 44 46 43 36 31 36 33 32 31 28 27 22 15 13 9

GFSSW_500_spd_024.txt.gz
Wind_Speed
31 31 30 31 32 34 37 39 41 44 47 48 55 63 61 60 59 56 50 41 52 50 46 44 43 46 43 43 43 43 45 43 39 31 31 34 35 35 39 39 38 36 35 40 38
27 30 32 32 32 33 33 36 39 41 42 46 52 53 66 65 65 63 58 50 53 55 52 54 49 49 51 49 49 46 48 44 37 35 37 43 42 44 39 40 37 40 41 42 40
29 31 32 34 36 37 38 39 40 39 40 42 44 53 52 63 68 68 67 66 72 64 59 57 53 53 57 56 56 55 54 47 40 43 45 48 48 46 47 46 41 45 46 44 42
28 30 32 35 37 39 41 41 42 43 43 41 43 45 49 57 59 59 61 66 68 67 65 68 66 65 65 59 59 61 61 55 49 41 53 55 55 51 45 49 35 37 43 42 43
31 33 34 36 37 39 40 42 43 45 47 48 47 45 49 51 51 52 52 61 67 72 72 71 71 66 64 58 58 55 55 52 48 44 50 50 56 50 47 45 37 41 42 42 44
35 36 38 40 41 42 44 45 47 48 48 49 50 51 52 50 50 54 53 52 55 57 61 74 75 66 61 62 61 56 58 54 53 46 49 53 55 54 46 40 38 43 40 42 41
37 39 42 43 45 46 46 47 48 50 52 54 54 55 53 51 55 57 58 58 57 55 57 63 67 66 64 62 61 63 61 61 54 52 50 47 54 50 45 44 42 41 41 40 42
42 44 46 48 49 51 53 54 55 55 55 56 57 58 56 57 57 56 59 59 60 60 61 62 64 63 63 63 60 62 63 64 60 55 52 52 54 43 43 42 43 43 42 41 45
45 47 49 50 52 54 56 57 59 60 61 61 61 61 58 61 62 62 61 60 62 63 62 63 64 65 65 62 62 59 52 57 61 60 61 56 51 45 45 44 47 46 44 41 45
49 52 53 55 57 59 61 63 63 62 62 63 64 63 63 65 66 68 68 66 64 64 65 64 65 64 63 64 52 54 62 57 56 52 60 54 47 49 50 54 50 49 45 43 41
51 53 56 60 62 63 66 67 68 69 69 69 70 68 65 68 70 72 72 73 71 68 66 66 68 66 52 52 55 58 59 57 54 55 61 58 52 52 57 58 48 46 50 40 37
56 60 64 68 70 71 73 75 77 76 74 74 74 76 74 75 73 71 75 78 76 74 70 72 72 49 54 57 53 52 52 53 50 50 54 55 51 50 55 57 49 47 43 37 30
62 67 71 75 76 77 73 70 70 72 80 67 71 76 77 75 75 69 75 78 80 79 77 75 58 57 60 56 53 48 46 47 44 45 51 44 49 44 49 53 44 43 37 35 24
71 73 72 65 63 57 55 52 50 49 61 60 57 57 63 63 67 66 69 71 77 79 77 77 65 68 61 56 54 48 45 44 40 41 47 44 53 47 43 36 36 33 33 27 24
71 63 54 51 47 47 48 45 44 43 45 45 43 37 42 46 51 59 60 64 70 73 72 72 77 71 67 55 55 51 52 44 41 43 48 50 54 42 34 32 28 25 24 26 22
54 47 43 42 43 45 46 44 43 39 36 31 36 30 28 31 35 39 46 52 63 65 70 72 74 72 65 61 57 50 49 42 45 44 50 42 43 40 24 15 20 22 26 22 21
42 37 36 37 43 43 33 25 20 23 26 22 24 29 30 26 34 32 34 38 48 56 68 69 75 74 69 65 59 58 55 50 49 49 48 39 39 30 19 15 19 22 19 17 19
35 32 32 37 38 19 14 12 11 12 15 21 31 27 23 20 30 26 31 24 33 46 56 63 71 74 71 69 63 59 55 53 51 47 38 33 33 8 19 17 17 15 14 18 18
31 27 33 37 29 20 12 11 12 11 14 13 15 21 19 19 27 24 26 23 29 43 57 49 65 66 72 66 64 60 55 46 46 44 35 25 22 19 17 14 9 12 10 13 19
23 30 35 35 26 20 8 9 11 15 17 15 12 15 20 18 23 19 29 26 30 39 58 57 64 55 67 64 64 58 46 49 51 47 44 30 18 24 15 12 12 11 12 16 19
27 30 35 32 22 15 10 12 16 16 15 14 13 9 12 18 24 25 36 27 27 41 52 59 65 54 53 69 64 61 56 50 47 45 36 27 16 18 15 17 11 10 17 18 22
33 33 33 31 23 14 7 7 9 12 15 13 11 9 7 12 17 24 30 33 28 32 47 63 62 50 47 62 61 56 53 51 48 50 41 22 18 21 20 15 12 15 15 18 22
32 34 34 28 26 17 19 13 14 18 13 10 8 10 7 5 7 13 24 33 25 20 39 62 60 51 63 42 61 61 55 49 50 44 35 24 18 20 15 19 17 17 15 16 15
28 33 39 37 27 23 17 16 18 20 12 12 7 7 3 2 5 2 14 28 40 22 37 54 63 56 37 49 53 61 56 55 50 50 39 28 21 20 21 23 20 18 15 14 15
29 32 36 37 38 32 24 16 15 15 14 8 9 4 3 5 6 4 8 23 29 33 24 43 68 42 46 59 62 60 58 58 54 51 42 34 25 23 27 27 25 23 20 15 14
31 31 34 35 34 34 30 28 21 16 15 11 9 6 4 4 8 16 11 9 10 27 21 34 55 48 47 57 60 62 60 56 47 48 37 37 27 31 32 35 31 25 20 17 17
29 29 31 32 32 30 29 30 24 25 21 11 9 12 7 6 9 18 20 11 12 15 28 27 36 62 43 46 54 57 59 51 45 42 33 30 34 35 35 35 29 24 23 18 16

GFSSW_500_spd_030.txt.gz
Wind_Speed
27 30 33 35 36 36 37 39 43 43 45 50 56 66 62 65 60 67 59 51 53 53 53 55 54 54 52 50 43 41 46 46 44 40 36 30 23 18 15 31 26 33 35 37 46
26 27 29 31 33 35 39 40 40 42 45 47 47 53 61 69 70 69 60 55 57 58 59 54 51 45 48 48 46 51 51 44 40 38 38 36 21 25 22 24 27 36 39 32 35
28 29 30 32 32 33 34 36 42 44 45 47 48 51 53 53 56 62 69 64 62 60 51 50 50 51 53 50 46 45 49 44 43 43 41 39 35 33 27 28 29 33 27 29 43
31 32 33 34 35 36 37 38 39 41 41 44 44 45 47 48 50 53 61 67 72 66 61 59 55 54 56 56 52 54 54 51 50 47 46 49 45 44 44 42 40 38 43 49 54
34 35 36 38 39 40 41 42 42 43 44 45 46 49 49 47 46 52 52 52 56 72 69 64 64 61 65 57 54 61 60 56 52 48 47 51 55 55 51 45 50 48 51 56 57
35 36 37 38 39 41 43 44 46 47 48 48 49 49 49 49 50 54 54 53 50 51 60 70 79 70 70 68 66 59 59 59 57 58 58 58 60 59 58 57 59 64 61 58 58
38 40 41 42 42 43 44 45 47 48 49 51 52 53 51 47 51 53 56 54 54 53 54 58 65 78 73 72 67 64 66 67 66 68 70 55 62 62 53 47 50 55 55 52 50
39 39 41 43 45 47 49 51 51 52 52 52 53 53 52 54 55 55 56 56 55 57 56 55 59 65 69 64 68 71 70 69 56 55 47 51 61 50 44 45 48 48 50 48 45
38 40 43 46 48 50 52 54 56 57 58 58 58 57 54 54 57 57 59 58 59 58 57 59 60 60 63 62 63 64 66 59 47 45 51 49 53 41 40 41 41 41 42 47 49
42 44 47 49 51 54 56 57 60 61 62 62 64 62 63 61 60 60 62 62 61 62 62 61 65 65 63 63 63 54 51 41 46 43 43 42 46 37 40 36 35 38 37 34 40
45 49 52 55 58 60 61 63 64 65 64 65 66 65 65 66 67 65 63 62 63 64 66 69 72 63 52 57 54 56 51 53 50 46 46 43 42 37 37 39 39 39 42 35 39
50 51 54 57 60 64 67 68 69 68 65 65 67 65 65 65 69 68 67 67 66 65 66 73 69 47 58 58 59 57 58 59 51 48 44 37 41 44 42 39 37 38 40 40 40
54 58 64 68 72 73 71 68 66 70 73 67 62 66 61 66 64 64 67 67 69 68 69 71 55 61 64 64 59 58 55 52 49 47 45 46 43 45 37 40 42 42 41 40 37
58 63 65 65 57 45 42 42 45 47 52 46 50 53 50 53 60 59 60 63 66 66 65 66 60 64 67 66 61 61 51 55 52 53 51 42 53 42 35 37 36 41 37 34 37
60 58 56 44 40 40 36 34 37 35 13 5 13 19 23 25 36 39 50 55 61 62 62 60 63 65 67 58 61 52 49 50 50 52 51 49 49 26 30 33 37 37 35 34 33
54 53 45 48 46 36 34 33 12 6 1 12 13 14 8 12 15 32 29 42 47 54 60 63 62 64 65 61 66 59 54 51 50 48 45 44 44 34 31 33 33 32 33 36 34
52 48 46 50 40 35 26 7 2 9 7 14 17 18 16 14 16 14 11 15 27 25 47 59 64 67 63 65 65 64 61 56 52 55 53 35 42 37 25 34 35 34 31 29 29
47 44 44 41 41 29 13 2 4 10 9 13 23 23 26 30 15 14 19 24 23 22 30 42 48 60 65 68 60 65 65 61 62 56 52 44 48 29 27 25 25 22 24 21 22
43 41 43 41 45 32 15 7 13 18 14 15 12 4 9 7 37 26 23 21 21 30 36 36 35 52 60 65 60 50 60 56 52 44 44 41 29 32 27 18 20 21 16 17 9
39 39 41 37 37 36 26 16 20 19 23 23 15 10 7 9 12 15 24 20 21 31 27 41 36 40 59 62 67 56 47 63 52 52 43 42 24 15 22 20 18 12 13 16 6
41 39 37 36 33 32 29 26 18 19 18 19 10 9 9 9 14 16 16 15 15 28 33 36 39 32 48 43 62 56 54 49 54 44 47 33 19 16 28 22 20 16 15 15 14
42 40 37 37 35 32 28 26 21 17 16 13 10 7 10 10 8 8 20 34 29 31 27 33 42 39 42 40 37 46 53 54 60 54 46 34 29 29 31 26 24 21 21 18 19
39 39 36 31 32 33 29 24 23 20 17 14 8 6 4 7 13 16 14 14 18 14 19 25 34 36 35 42 51 52 52 58 55 42 42 34 23 34 32 30 23 23 23 22 19
41 40 36 35 33 32 30 24 22 23 21 17 7 10 12 15 9 15 20 11 11 8 13 26 35 31 36 36 48 49 43 54 48 51 39 35 22 27 20 20 27 24 16 15 16
42 41 41 35 33 32 28 25 21 20 18 17 14 11 16 17 14 16 17 9 11 10 10 20 22 38 47 44 49 44 49 40 45 43 47 40 34 10 18 28 28 23 18 18 16
41 41 38 38 31 30 36 22 22 18 20 17 17 18 16 10 12 15 17 11 6 4 7 6 17 30 46 33 47 48 54 52 42 34 43 26 31 18 30 31 29 30 28 23 16
38 38 39 41 35 32 31 25 20 21 18 20 20 20 18 15 15 14 15 11 9 7 3 12 6 19 34 37 16 54 56 50 47 35 42 30 36 38 27 16 26 30 27 21 16

GFSSW_500_spd_033.txt.gz
Wind_Speed
25 26 27 30 32 34 35 35 35 38 37 46 46 53 62 61 55 57 50 47 52 55 55 50 49 47 45 46 45 42 52 51 44 41 38 30 39 36 35 19 24 31 27 30 37
26 27 28 30 31 31 33 37 40 39 40 43 46 49 49 62 68 67 52 51 54 52 56 55 62 60 58 58 55 56 64 59 42 39 43 34 38 39 27 33 30 29 31 29 33
28 29 30 31 32 34 34 34 36 40 46 45 45 47 49 50 57 66 69 62 60 64 66 64 62 57 58 56 56 59 62 51 48 41 41 39 40 40 35 34 29 29 27 32 32
34 35 36 36 36 37 37 38 38 39 40 44 52 52 51 50 53 55 58 72 70 68 64 63 63 61 62 63 58 59 55 52 47 44 40 39 38 44 43 44 44 41 36 36 35
34 35 37 39 41 41 42 42 43 43 43 44 45 47 52 53 48 54 56 61 63 66 71 71 72 63 64 61 53 58 53 52 49 45 45 45 45 46 48 46 45 45 45 46 51
37 38 40 40 41 42 43 45 45 45 46 47 48 48 48 47 50 52 56 55 57 59 60 64 72 71 69 71 66 57 56 56 54 55 54 52 52 50 49 44 46 52 54 54 54
35 37 39 40 41 43 45 46 48 49 50 50 49 50 49 48 55 54 58 56 54 54 53 53 58 67 71 72 72 69 66 67 64 60 57 54 56 46 46 54 57 47 44 52 49
33 35 36 39 42 44 46 48 49 50 51 53 53 53 50 54 54 56 57 58 58 57 57 57 59 58 60 64 72 76 76 75 63 62 59 55 49 48 48 45 45 42 40 41 41
34 36 40 43 46 48 51 54 55 56 57 56 56 54 54 55 56 56 57 59 60 59 60 61 62 61 60 59 60 61 67 65 56 53 52 59 58 47 38 42 40 37 35 35 33
37 40 42 44 46 49 53 55 57 60 61 62 62 59 60 61 60 60 59 59 61 63 63 63 64 63 61 61 59 55 52 51 48 46 48 49 50 41 32 36 33 32 33 31 30
38 39 44 50 54 56 60 62 64 67 61 61 63 65 65 66 64 64 63 62 63 62 64 69 70 61 49 54 55 55 55 49 47 46 45 44 47 42 31 34 34 32 31 28 34
41 47 51 54 58 63 67 70 72 72 66 57 64 61 63 63 67 65 66 64 65 66 67 71 63 51 56 58 62 58 55 51 48 48 44 41 45 42 32 33 35 32 29 32 35
43 49 52 56 60 65 63 58 52 45 55 50 53 61 60 60 60 61 64 64 66 67 69 68 55 58 64 65 65 57 55 50 48 52 44 47 49 45 34 31 28 36 31 35 29
46 50 53 58 62 59 50 41 33 30 23 11 18 18 31 52 55 54 56 59 60 61 63 65 58 61 64 66 64 59 55 54 53 55 47 45 55 46 33 29 31 31 36 27 24
47 50 54 59 62 55 45 27 20 15 8 8 9 9 7 11 22 36 48 54 56 54 58 55 60 63 67 60 64 58 56 56 55 55 52 51 51 27 30 29 23 31 30 24 23
45 50 52 51 48 40 33 17 10 11 9 7 8 13 4 16 16 23 14 31 43 42 54 58 58 60 61 60 65 60 61 57 52 53 56 43 50 24 26 23 28 31 24 25 29
45 49 50 43 40 35 24 16 20 10 12 17 15 14 18 20 11 12 21 19 15 17 37 51 52 57 57 62 61 60 62 59 58 57 53 42 48 35 20 21 23 19 23 24 28
45 48 47 41 36 34 27 22 27 17 19 18 19 19 25 26 20 17 12 16 15 17 19 39 47 53 56 58 59 62 64 66 64 62 51 48 50 40 18 22 15 15 20 19 24
42 45 46 42 35 34 31 28 26 21 28 27 23 19 14 15 23 26 24 11 19 23 23 28 38 36 51 59 56 56 64 60 62 60 55 51 45 40 33 34 12 11 16 12 13
42 41 44 43 35 32 32 30 24 18 21 23 27 18 13 10 13 8 17 23 26 29 36 34 37 33 37 57 64 60 54 58 60 59 59 49 48 44 23 23 10 19 16 12 9
43 43 43 42 35 31 30 31 24 20 19 20 21 5 12 7 16 18 15 12 17 21 25 29 28 31 40 45 53 58 56 57 61 56 53 50 45 23 20 17 15 17 11 9 12
40 43 44 44 37 32 31 24 24 22 20 18 10 10 10 7 6 13 11 20 13 19 19 20 21 28 40 48 44 58 60 51 53 60 53 50 43 22 7 16 23 16 14 15 19
36 40 41 42 42 32 31 22 24 24 21 16 14 10 12 11 6 14 5 10 17 16 21 24 26 28 31 37 35 50 63 55 48 49 52 52 38 27 24 17 17 26 15 18 23
32 36 38 41 43 38 31 25 21 22 18 15 14 9 10 14 18 20 18 11 9 11 14 14 19 25 27 39 47 42 68 58 53 56 57 55 38 16 17 18 26 28 24 23 20
30 35 39 41 41 39 35 25 19 21 15 17 13 17 14 11 16 22 22 19 14 8 14 13 9 16 23 38 39 45 67 61 61 60 60 49 34 24 13 21 24 23 18 20 14
30 32 34 36 42 42 37 28 25 16 21 15 17 15 15 20 16 15 16 17 16 9 11 7 3 8 17 31 40 43 60 64 63 62 58 45 39 18 19 21 24 20 16 19 14
29 28 32 34 40 43 40 31 23 20 20 19 18 19 19 17 17 15 16 12 9 8 9 3 5 7 3 22 40 42 51 54 58 59 53 52 40 32 29 29 30 30 24 25 18

GFSSW_500_spd_036.txt.gz
Wind_Speed
22 23 24 25 26 28 32 34 35 37 39 40 40 44 53 61 62 59 58 51 55 54 50 49 49 49 51 48 42 47 56 52 48 44 40 35 40 33 36 35 34 41 30 28 30
23 25 26 28 29 30 31 31 35 40 41 40 41 42 43 56 62 63 59 57 56 56 55 57 51 52 54 48 51 54 59 53 44 44 43 35 47 31 36 39 43 29 33 27 30
27 28 29 31 32 32 32 33 35 36 38 43 45 45 44 43 50 58 64 66 63 60 59 61 64 65 64 57 59 60 64 54 49 45 44 41 41 41 39 40 40 44 37 34 33
28 30 31 33 35 36 38 39 40 39 38 40 42 48 49 46 50 51 54 59 65 71 62 59 62 62 67 63 59 61 62 60 50 51 49 52 53 52 42 36 36 39 41 34 36
31 32 33 35 36 37 39 41 42 43 43 43 43 45 46 51 49 58 59 58 57 68 77 72 70 66 68 65 65 66 55 61 57 56 54 50 54 46 45 42 34 38 42 43 42
28 31 33 34 35 36 38 40 42 44 46 47 47 46 46 46 54 56 59 57 59 60 67 78 77 78 76 71 69 66 66 62 62 60 55 52 50 45 41 38 40 42 43 44 44
26 28 29 31 33 35 37 39 42 43 45 47 48 51 48 50 55 55 57 59 60 58 61 66 66 72 77 76 73 73 76 74 63 60 55 50 55 50 39 40 44 45 45 45 47
25 27 29 32 35 37 40 42 44 45 48 49 50 50 50 57 55 56 56 57 59 60 59 60 62 63 65 65 63 65 68 69 55 58 59 55 54 45 43 46 47 44 44 48 44
28 30 33 35 37 39 42 45 48 52 56 57 57 55 55 57 58 58 58 59 60 62 63 64 65 62 61 61 62 62 61 61 56 60 63 63 50 48 49 48 49 48 44 39 36
30 32 34 37 40 45 49 52 55 57 60 62 63 63 64 66 62 61 62 62 63 64 65 66 66 65 63 62 61 58 56 55 54 50 49 54 52 47 41 39 41 42 32 29 28
33 36 38 41 44 47 50 56 62 65 70 75 73 68 67 70 67 67 66 64 66 67 67 69 70 63 56 57 58 59 60 56 51 49 47 44 46 45 38 39 39 33 29 28 28
34 36 38 41 48 52 57 62 69 70 68 54 58 63 69 64 70 70 70 68 67 68 70 70 62 58 61 64 62 60 59 53 51 51 48 45 45 41 38 39 37 27 30 27 31
34 37 40 44 50 56 62 69 62 46 29 20 20 22 32 45 54 56 61 66 67 68 69 67 61 61 63 67 65 62 60 54 54 52 47 51 48 43 38 36 30 30 29 29 29
35 38 41 46 50 55 57 52 31 29 8 8 17 10 14 17 26 41 55 61 65 66 65 66 61 63 67 67 65 64 61 58 56 54 51 48 51 47 32 33 33 29 28 32 26
36 38 41 46 49 52 43 41 27 28 30 19 12 12 18 9 8 19 35 50 51 58 64 60 62 68 68 63 67 60 63 61 59 58 57 52 53 30 34 33 28 24 32 26 18
37 39 42 45 49 47 39 36 30 34 35 19 22 13 12 13 14 20 23 31 37 46 55 59 60 61 63 62 64 61 64 64 62 60 62 46 48 20 29 24 20 25 26 21 18
37 38 41 44 47 45 37 33 30 34 27 22 22 25 21 14 13 17 22 16 15 19 38 51 51 54 58 62 62 62 63 62 63 66 54 47 48 24 18 16 23 28 23 17 19
36 38 40 43 46 44 37 31 30 28 26 18 15 19 25 21 17 19 20 28 17 15 24 30 42 51 54 55 58 61 62 63 62 61 57 56 48 36 26 19 24 20 17 14 15
36 38 38 41 44 44 37 32 29 26 26 24 24 24 17 18 20 13 19 21 18 22 20 23 22 37 47 51 57 56 64 60 62 60 61 55 48 44 33 29 30 14 15 9 12
32 37 38 38 42 46 36 32 26 25 23 24 20 20 13 5 14 19 9 20 20 21 16 19 26 22 27 44 54 55 56 54 59 60 61 56 51 45 30 29 26 17 17 11 12
32 33 36 38 42 43 36 31 21 23 23 22 20 14 12 9 12 15 12 13 19 23 24 26 25 26 24 30 44 52 54 55 56 60 61 55 51 42 25 25 23 18 14 9 10
34 33 34 37 39 45 38 31 21 21 23 19 19 17 11 10 9 12 9 13 16 17 20 25 29 32 27 37 38 46 54 60 60 60 58 57 49 42 30 31 27 13 16 10 10
32 31 34 37 39 43 39 29 22 19 18 14 14 14 8 12 13 14 12 17 8 12 28 22 21 21 19 32 46 46 53 62 62 60 59 57 43 30 35 32 29 15 18 14 7
34 31 29 34 38 43 45 31 18 20 17 16 13 12 9 12 18 19 21 17 10 7 11 19 15 17 20 27 40 50 45 57 64 63 58 54 45 38 36 31 28 21 19 14 13
36 33 31 32 32 38 44 41 19 16 17 17 12 16 16 11 14 21 25 21 17 12 11 10 13 17 15 22 35 49 46 45 67 63 63 55 49 42 36 29 27 17 15 10 12
38 31 27 29 30 36 40 38 22 21 20 14 15 16 17 18 19 16 20 19 11 13 9 13 9 8 3 12 29 44 47 47 64 64 64 59 52 40 39 38 29 22 17 17 14
38 35 28 29 27 31 36 37 26 20 23 18 18 19 23 19 16 13 4 8 5 6 7 7 8 8 7 8 18 44 47 46 59 61 62 61 55 46 44 40 33 29 24 19 17

GFSSW_500_spd_042.txt.gz
Wind_Speed
16 17 18 20 21 22 25 30 34 35 36 37 37 36 38 42 42 43 41 51 63 60 54 50 50 50 48 49 48 48 51 47 42 41 41 42 40 45 45 44 44 48 46 45 45
19 20 20 21 22 23 25 26 28 30 33 35 37 39 42 43 44 45 46 48 52 62 63 54 53 50 55 52 53 53 55 47 41 43 40 43 47 45 47 46 48 49 44 43 44
20 21 22 23 25 26 27 28 30 32 33 35 37 38 39 43 45 49 50 50 50 53 61 63 56 56 56 57 56 57 58 49 45 48 47 50 52 52 55 54 49 52 48 45 46
20 22 23 25 25 27 29 30 32 33 35 37 38 39 41 41 43 47 48 50 52 51 54 68 68 62 61 59 56 58 57 54 49 52 52 50 54 59 62 60 52 45 45 47 39
21 22 23 24 25 27 28 30 32 34 36 38 39 41 41 44 47 49 47 49 50 53 56 61 71 74 69 61 60 60 60 60 54 54 54 54 59 61 62 58 51 46 44 42 38
18 19 20 22 24 25 27 28 30 32 34 35 37 39 41 46 48 49 52 52 52 51 55 59 61 64 72 75 69 64 65 64 60 62 61 59 61 66 62 54 54 51 49 48 46
20 21 22 23 23 24 25 27 28 31 33 36 37 39 43 46 47 48 52 55 56 56 55 55 60 63 68 73 75 71 70 71 69 66 67 66 68 67 60 53 51 47 50 53 47
21 22 23 24 25 27 30 32 35 38 40 42 43 43 47 48 50 52 53 56 57 59 58 60 61 62 65 68 70 76 81 78 71 70 67 65 66 63 61 61 61 51 49 51 50
24 24 24 26 28 30 33 36 38 41 43 44 47 52 53 53 55 57 58 60 62 60 61 66 64 63 64 67 70 71 72 76 80 73 72 71 69 68 63 59 58 55 52 54 44
24 25 26 28 30 32 34 37 40 43 45 47 51 54 55 58 63 66 66 63 67 68 68 69 69 69 66 67 69 69 67 68 71 72 74 79 68 65 63 64 61 56 51 51 48
25 26 27 29 32 34 36 39 42 46 49 50 54 60 61 64 71 75 76 76 73 70 74 76 76 68 64 65 63 64 67 68 67 68 67 68 67 64 63 58 56 49 46 45 44
27 29 29 32 33 35 37 40 42 45 50 55 60 67 74 75 71 61 63 70 73 71 74 76 77 70 69 71 67 67 67 65 63 61 61 62 65 62 60 53 47 43 42 42 41
27 28 29 31 33 36 38 41 44 47 52 56 64 68 59 52 49 46 43 36 42 54 67 71 72 74 74 73 71 69 68 65 63 60 59 60 63 56 54 51 45 42 39 37 36
28 29 29 32 34 36 39 41 45 49 52 61 56 49 42 45 35 31 29 30 27 29 43 57 62 67 70 74 72 72 68 65 65 59 59 58 64 56 47 46 45 39 34 27 30
27 29 29 32 35 36 38 41 44 48 57 55 48 40 40 36 33 24 24 24 25 25 29 42 47 54 64 68 71 68 68 67 64 62 61 60 60 47 41 42 36 32 28 32 33
30 31 32 34 36 35 37 40 43 47 51 47 34 36 36 31 27 28 25 26 24 20 25 25 39 46 52 60 63 66 64 63 64 65 67 57 56 48 37 34 33 34 33 33 32
33 33 34 35 36 36 37 39 42 47 49 39 28 33 32 29 28 28 20 22 20 22 13 17 22 36 43 49 56 62 64 63 63 66 59 55 58 40 32 38 37 36 36 33 32
36 35 35 36 36 36 36 38 41 44 42 27 26 30 29 28 21 19 10 11 15 18 14 18 14 26 38 44 41 52 58 62 66 66 55 53 53 38 35 38 26 20 33 35 33
37 36 35 36 37 34 34 36 41 42 38 28 23 27 23 21 24 16 11 10 15 13 14 11 13 14 26 35 38 40 51 51 54 60 60 58 44 40 42 39 29 16 20 28 28
39 39 36 36 36 33 33 34 39 41 32 28 26 28 25 23 15 15 14 13 13 15 17 8 12 15 19 26 34 38 42 47 51 54 58 55 49 45 44 40 31 29 18 16 21
42 41 39 36 34 32 34 32 36 40 31 27 25 27 23 23 17 14 12 13 14 12 13 16 13 12 15 14 20 30 41 47 47 48 53 54 52 49 49 42 32 38 36 30 23
45 41 40 37 33 31 33 35 35 35 33 27 22 24 23 22 19 15 14 15 15 10 13 11 10 17 12 17 24 33 34 45 50 51 53 55 55 54 50 45 37 29 38 28 23
44 43 41 38 35 29 30 31 35 35 33 24 21 20 22 18 21 19 16 14 17 15 15 10 13 13 15 19 18 21 26 36 46 53 57 59 57 53 52 49 38 37 35 35 24
43 44 41 38 36 34 28 29 30 34 32 27 23 20 20 20 24 24 21 20 13 14 16 14 10 14 16 20 23 26 27 26 39 54 57 60 58 57 38 27 38 41 30 30 31
43 43 41 38 37 37 31 30 30 31 29 24 20 19 24 25 23 18 19 20 20 15 15 12 6 11 11 15 23 28 29 32 39 50 58 54 59 60 51 32 35 38 33 36 34
41 42 40 38 35 37 32 29 29 29 31 23 17 18 23 27 24 16 18 16 8 13 14 13 10 13 12 18 23 25 27 34 41 47 56 61 59 59 49 47 41 41 43 38 36
37 39 37 37 33 35 31 30 29 27 27 26 15 13 19 24 24 21 16 10 8 5 13 13 16 16 13 20 23 16 18 31 32 47 58 62 60 58 47 50 44 47 45 42 40

GFSSW_500_spd_045.txt.gz
Wind_Speed
12 13 15 16 17 18 21 23 25 27 30 31 33 34 35 32 34 39 40 41 47 55 57 52 51 54 51 47 46 47 52 48 41 41 39 39 42 44 42 42 43 41 39 41 40
15 16 17 18 19 20 22 23 24 25 26 27 30 31 35 36 38 40 41 43 43 44 53 60 56 59 55 54 51 53 54 48 40 42 40 40 44 45 47 47 48 46 45 45 45
17 17 18 19 21 22 24 24 26 27 28 29 31 32 33 34 35 40 44 44 46 46 49 50 54 67 64 59 59 58 58 46 46 45 44 43 49 52 53 51 48 47 46 46 46
19 20 21 22 23 24 25 26 27 29 30 31 32 33 35 37 39 39 38 40 44 47 50 51 53 56 66 65 61 61 60 52 49 50 49 46 51 55 55 51 51 51 50 50 50
20 20 21 21 22 22 23 24 24 25 26 27 29 31 34 37 39 41 42 43 43 46 48 50 55 55 61 61 74 65 60 60 54 53 53 49 56 57 61 55 54 53 53 52 49
16 17 17 19 20 21 22 23 24 25 25 26 27 29 32 34 36 37 40 44 47 48 49 50 52 55 58 61 65 70 64 64 59 58 54 57 57 62 60 62 61 59 55 55 50
17 18 18 19 21 20 20 21 23 24 26 27 29 32 34 37 40 40 43 45 45 46 50 52 54 55 56 60 60 67 77 72 67 62 62 61 62 66 59 62 64 65 61 55 50
18 18 20 20 20 21 23 23 25 27 30 32 35 38 40 42 44 44 46 49 50 51 51 53 56 58 59 58 60 63 70 79 73 69 62 66 66 59 60 62 62 60 56 56 55
19 19 19 20 23 25 26 27 29 31 33 35 37 40 43 46 49 52 54 56 57 58 58 59 60 59 61 62 63 64 66 68 69 75 76 72 70 64 63 61 59 59 59 58 57
20 20 22 24 25 27 29 31 32 34 36 38 39 41 42 46 51 54 57 59 60 62 62 64 65 64 63 65 64 62 62 63 68 68 73 78 73 69 67 65 66 63 62 61 61
22 22 23 25 26 26 28 31 33 36 38 39 42 46 48 51 54 57 60 63 67 69 70 70 66 65 69 71 64 66 68 69 66 65 68 67 70 72 75 69 65 64 64 62 59
22 20 22 24 25 25 26 29 32 34 37 41 43 47 50 54 57 63 66 65 64 65 70 76 75 68 71 74 73 71 71 71 67 66 64 66 65 66 63 63 62 57 57 54 50
24 23 23 24 26 27 29 32 34 36 37 41 46 49 52 55 61 57 55 52 46 38 36 49 62 64 69 73 75 77 75 72 69 66 65 64 65 63 60 55 54 50 44 41 39
29 28 29 29 29 31 33 33 36 38 39 43 45 50 52 53 50 47 41 34 31 27 30 30 29 42 59 70 74 76 75 73 69 68 66 62 68 61 54 55 51 47 44 40 36
30 32 33 34 34 35 35 35 36 37 41 40 46 48 49 50 49 33 34 32 28 28 30 22 25 29 42 55 64 72 74 73 70 70 67 64 67 53 50 50 45 40 34 34 37
32 34 35 36 35 34 34 35 36 37 40 43 45 47 44 37 38 34 29 32 27 25 23 22 28 30 35 33 46 60 67 70 70 69 71 65 63 52 48 41 37 36 36 37 36
34 37 37 38 37 36 35 35 34 35 40 43 43 43 35 33 32 28 21 19 16 20 17 17 16 16 24 35 31 45 57 63 66 72 68 67 63 39 42 38 38 41 39 37 35
35 38 38 38 39 37 35 35 34 33 35 38 42 35 30 32 27 27 16 15 17 17 16 17 12 20 21 28 32 31 48 50 66 67 63 63 57 41 39 24 24 38 42 37 36
37 38 40 39 39 37 35 35 35 35 36 38 37 31 23 25 26 20 11 14 14 16 20 22 15 12 18 19 34 32 33 46 44 54 64 63 49 44 43 44 27 24 28 34 38
39 38 40 40 39 39 36 34 35 34 35 38 38 29 24 23 23 20 15 14 14 15 15 16 19 11 15 7 27 33 28 33 42 46 56 58 52 48 47 45 47 45 36 31 25
39 39 40 39 37 37 36 33 32 35 35 37 34 26 21 22 23 22 18 16 14 14 14 14 15 13 2 14 21 29 32 32 33 44 49 53 53 51 49 43 41 37 38 31 27
40 40 39 39 34 35 35 34 32 33 35 38 33 25 20 21 23 23 22 17 16 15 15 14 11 10 13 13 14 21 30 28 34 40 47 50 50 50 51 46 40 36 35 31 23
37 38 38 39 35 34 35 34 31 32 35 37 32 25 18 21 26 25 23 19 16 15 13 13 13 11 12 12 16 23 17 28 32 39 46 52 47 51 50 48 43 42 37 39 31
36 37 38 38 35 34 33 34 30 30 34 35 31 24 20 22 27 27 23 23 18 16 12 15 13 9 12 14 16 17 18 22 26 40 46 53 52 52 46 47 45 43 35 36 34
35 36 39 37 36 36 34 35 30 29 31 30 26 20 22 26 25 23 17 17 16 11 13 14 8 8 8 14 15 16 16 20 23 28 45 47 55 48 33 31 40 37 38 37 35
32 36 37 37 34 34 34 33 28 27 29 24 21 20 24 26 27 24 18 15 17 9 10 12 6 8 8 11 15 18 20 22 21 22 37 46 57 53 43 36 37 38 45 42 36
28 31 35 38 34 31 31 31 29 22 27 22 21 21 23 20 20 24 21 19 16 11 5 10 11 17 10 13 18 13 14 21 27 25 35 53 53 56 53 41 38 42 44 43 46

GFSSW_500_spd_048.txt.gz
Wind_Speed
13 13 13 13 14 14 15 18 19 21 23 26 27 28 29 29 31 32 34 40 42 42 48 55 57 53 57 52 45 44 49 46 41 39 35 37 41 44 46 43 41 43 42 35 32
15 15 16 16 16 17 18 19 20 21 22 23 25 26 28 29 31 33 33 34 40 42 42 48 53 55 59 58 58 51 54 48 41 43 37 38 43 47 50 47 46 45 43 41 38
17 17 17 18 18 19 20 22 22 23 24 25 27 27 28 28 31 31 31 33 36 39 43 45 47 50 59 58 63 60 60 49 47 48 47 44 47 50 49 51 50 48 48 47 43
18 19 19 19 20 21 22 23 24 25 26 27 29 30 31 31 33 31 33 34 35 38 41 44 44 48 49 56 62 65 63 58 51 54 51 49 49 50 54 54 50 54 50 48 48
16 17 18 18 17 17 18 19 20 21 23 24 26 28 30 33 35 37 37 38 39 40 41 43 46 49 50 53 57 53 55 66 60 61 56 50 51 53 55 51 56 55 55 53 50
13 14 16 16 17 18 19 21 21 21 22 24 25 26 26 28 29 31 33 35 39 43 45 46 47 49 52 53 56 54 58 58 68 65 61 56 53 58 57 53 58 58 59 57 52
15 16 16 17 18 19 19 21 21 23 23 24 26 27 28 30 32 33 36 37 39 41 43 45 49 51 53 54 53 55 60 61 61 66 66 63 61 65 58 59 58 61 59 58 55
15 15 17 17 17 18 18 20 21 22 24 25 27 29 32 33 35 37 39 42 43 43 45 48 51 51 54 57 57 58 59 62 57 63 64 76 72 65 61 62 64 56 58 57 56
16 15 16 17 18 20 21 22 23 24 25 27 29 32 34 36 38 40 44 47 49 50 51 53 54 54 55 58 61 63 63 61 58 59 63 72 74 63 62 66 67 63 62 58 61
15 15 16 17 19 21 22 23 23 24 25 28 31 33 33 37 39 42 44 47 50 51 53 55 57 60 62 65 64 59 64 63 63 58 66 68 66 69 67 66 68 67 65 65 64
20 17 17 17 19 20 22 22 24 26 27 29 32 34 34 39 43 44 46 49 50 51 53 57 58 63 62 66 68 68 70 68 68 65 68 68 66 65 70 73 70 70 63 60 60
21 21 21 21 21 21 22 23 26 27 29 29 31 34 37 40 41 43 45 47 50 52 56 59 61 64 69 71 69 74 75 72 72 71 69 70 68 63 64 67 72 72 70 68 65
24 24 24 25 24 23 23 24 24 26 27 29 34 35 38 40 42 45 46 47 50 52 53 56 49 54 59 65 70 70 75 75 76 77 69 71 70 65 64 66 64 62 65 66 64
24 27 27 27 28 28 28 28 28 28 28 32 33 36 39 43 46 46 48 48 45 44 40 42 33 34 38 43 51 66 72 77 79 79 75 70 72 68 61 61 60 57 54 53 51
25 27 29 30 30 31 30 28 27 29 32 30 35 38 42 44 46 46 46 45 40 31 35 28 29 28 29 30 31 47 61 69 74 80 79 75 74 70 64 61 55 52 49 47 44
25 28 30 31 32 32 32 31 30 29 31 34 35 38 42 44 46 46 40 38 34 26 22 19 23 24 22 23 27 29 33 40 45 49 62 75 72 67 62 57 52 46 44 44 45
27 29 31 33 33 33 32 32 30 29 31 35 35 38 41 43 41 36 30 27 22 18 14 17 19 20 23 25 20 24 25 30 43 52 60 72 54 66 59 53 48 46 44 42 41
29 30 31 33 34 34 32 32 29 29 30 32 35 36 39 40 31 26 26 21 21 19 20 19 20 22 19 25 21 24 25 29 35 41 50 51 50 61 52 47 49 48 40 41 40
29 29 31 31 33 34 31 33 31 30 31 32 32 35 37 27 24 23 24 20 18 19 18 20 20 22 24 14 19 23 28 27 31 26 37 39 52 65 54 55 39 34 43 41 41
29 29 30 30 32 33 30 31 32 29 29 32 35 36 30 21 22 24 24 23 20 19 18 17 21 19 19 20 16 18 24 23 36 25 23 30 36 59 55 53 48 30 36 45 44
29 28 29 29 32 32 29 30 31 30 28 31 33 35 22 16 20 26 28 25 20 18 18 15 15 14 14 14 14 9 26 27 24 34 16 27 27 42 58 51 47 41 33 35 38
29 30 29 29 30 31 28 27 29 30 28 30 31 29 13 16 19 24 26 24 19 17 15 17 16 14 14 13 18 13 18 30 23 26 32 27 16 40 53 52 45 49 44 39 33
28 31 30 28 29 31 29 26 27 28 27 29 29 22 13 18 26 25 25 21 18 16 14 15 13 13 6 12 11 18 23 19 24 32 37 28 18 31 46 47 48 41 53 52 40
29 29 29 25 29 31 30 26 26 26 23 26 25 21 20 22 25 29 24 17 17 14 12 14 11 12 10 18 11 12 17 17 24 30 28 35 33 21 30 44 48 46 40 44 36
27 26 27 26 29 31 31 27 25 24 22 23 23 23 26 25 17 23 22 17 18 13 4 10 10 10 7 11 15 13 15 16 15 22 27 30 32 38 41 45 49 48 39 43 44
27 25 24 27 28 32 33 28 24 23 18 20 21 23 26 17 16 19 21 18 15 10 6 9 10 8 9 10 11 15 16 18 20 18 23 18 38 39 43 42 46 51 48 46 50
28 25 25 30 32 33 33 29 23 20 20 17 19 16 21 12 12 19 20 16 12 9 9 11 12 13 8 13 13 11 15 19 21 22 25 26 30 46 44 48 49 44 44 48 49

GFSSW_500_spd_051.txt.gz
Wind_Speed
16 16 16 14 14 15 16 16 17 18 20 22 22 23 24 25 27 31 34 35 39 40 45 48 49 49 47 54 51 47 47 48 42 39 39 36 38 38 37 42 47 48 42 43 45
17 17 17 18 18 17 17 17 18 19 20 21 22 24 25 26 28 31 31 33 34 36 41 45 48 52 54 50 53 54 58 51 42 41 44 44 37 39 40 47 46 48 51 45 44
19 18 18 18 19 19 19 20 21 21 22 23 24 24 25 26 28 28 29 30 32 34 35 39 44 46 48 53 56 57 57 54 46 44 46 47 41 40 44 46 44 49 50 44 45
18 18 19 19 20 21 21 21 23 24 25 25 27 28 28 29 31 27 30 31 31 33 35 38 40 46 47 46 49 54 54 60 58 52 51 53 46 47 46 49 48 44 44 42 51
14 14 15 15 16 17 18 18 19 20 22 24 26 28 29 30 31 32 33 34 35 35 36 38 41 45 46 46 49 53 46 49 61 60 61 56 52 51 51 47 49 54 52 61 54
15 16 16 16 17 18 19 18 20 21 22 22 22 23 24 25 26 29 30 32 35 37 40 41 42 44 46 49 51 47 50 52 52 60 63 66 61 52 58 54 52 56 60 63 56
15 16 17 18 19 20 21 22 22 22 23 24 24 24 25 26 27 29 31 33 34 36 37 39 41 45 48 49 49 52 54 56 56 55 58 59 71 69 57 55 59 60 60 61 54
13 13 15 17 18 18 20 21 21 23 24 25 26 26 27 28 28 30 32 34 36 38 40 42 43 45 48 50 53 56 58 60 53 56 56 63 66 70 67 64 61 59 59 61 57
15 15 15 16 18 19 19 21 21 22 23 24 25 27 29 29 31 33 35 37 39 41 43 44 45 47 50 52 55 55 58 59 57 56 59 61 65 54 59 70 71 65 62 63 53
16 16 15 14 15 16 17 18 18 19 20 22 23 25 27 30 31 33 35 38 40 42 44 46 49 52 54 58 57 56 59 59 60 56 54 58 65 58 54 60 70 65 66 64 62
18 18 18 17 16 16 17 18 19 19 22 22 25 26 29 31 33 35 36 39 41 43 45 48 50 53 56 60 62 63 65 66 63 60 48 55 65 63 60 64 65 73 71 66 66
16 18 20 21 20 18 18 18 19 20 21 20 25 26 27 30 33 37 39 40 42 44 45 46 48 51 54 58 63 66 68 70 68 69 44 65 69 70 68 66 64 64 74 72 71
17 16 18 20 22 21 20 19 19 18 19 20 22 24 27 30 33 35 38 41 42 44 44 46 47 48 52 56 59 61 66 69 74 74 62 74 76 73 71 69 67 63 63 71 72
18 17 18 20 22 22 22 21 20 21 21 20 21 23 29 31 37 38 39 41 42 44 46 48 45 44 49 50 52 58 57 65 72 75 79 76 78 75 70 70 70 62 63 67 73
18 18 19 20 22 23 23 21 22 21 24 22 28 29 32 35 38 41 44 47 49 50 48 40 36 28 29 32 33 35 35 41 46 64 74 64 72 78 68 71 69 65 65 60 60
19 19 20 21 22 23 24 22 22 22 20 27 27 29 33 35 39 42 45 46 46 39 25 23 22 19 25 29 35 33 36 38 39 42 52 66 64 81 70 45 44 64 66 60 55
22 21 22 23 22 23 24 22 22 23 26 28 27 30 33 35 38 41 36 27 23 25 21 20 19 23 24 30 21 24 24 28 33 40 51 50 54 59 56 48 45 52 64 58 54
22 22 23 24 24 23 23 23 21 22 24 26 27 28 34 34 36 29 23 20 21 24 25 21 17 19 22 26 29 22 27 27 30 28 28 38 51 45 53 42 38 58 59 55 48
21 22 23 23 23 22 24 26 24 24 25 24 24 26 28 34 27 17 18 22 24 23 25 26 24 23 22 21 24 26 32 22 29 31 36 32 38 42 38 44 45 54 53 51 51
23 22 22 22 23 23 24 25 25 23 25 25 25 27 29 24 12 18 19 24 28 24 25 23 25 19 16 22 21 27 15 21 21 30 31 18 31 28 45 39 32 44 50 50 45
26 25 24 23 22 24 24 26 28 26 25 24 23 24 26 14 14 19 27 26 23 28 23 22 23 12 16 19 18 16 9 21 19 27 28 20 27 22 28 42 37 34 43 37 46
28 26 24 23 22 22 25 27 27 27 24 23 20 20 21 17 15 20 28 23 24 25 21 18 19 18 17 12 14 12 11 19 27 21 27 23 25 31 33 33 35 40 53 50 41
31 29 26 22 20 22 26 28 28 28 24 24 21 19 18 19 14 18 24 22 19 17 11 13 13 13 10 15 19 20 15 17 21 24 37 27 17 26 22 26 35 38 50 49 40
30 28 25 23 23 24 26 28 30 25 23 23 21 20 19 19 10 16 22 18 17 12 6 10 7 13 14 18 19 16 13 15 18 19 29 32 24 15 32 28 29 34 54 49 42
31 30 29 27 27 28 28 29 27 24 21 21 22 20 18 15 7 14 21 15 13 12 11 10 8 15 10 10 15 21 18 16 19 20 29 33 33 25 24 37 20 44 45 53 47
33 33 31 31 30 30 28 31 30 22 19 20 19 20 17 14 9 11 15 13 15 14 14 16 14 19 14 12 14 19 22 23 22 21 28 29 45 25 24 22 35 51 49 49 53
34 34 34 33 33 32 33 33 30 21 21 17 17 17 16 14 9 13 15 16 17 15 18 20 22 22 22 20 19 15 16 20 24 23 25 32 33 31 26 27 35 46 46 46 43

GFSSW_500_spd_054.txt.gz
Wind_Speed
20 20 20 20 18 17 17 16 18 20 22 22 23 24 24 24 26 29 33 34 39 42 44 45 48 47 52 48 54 47 53 50 47 44 41 38 38 39 38 39 35 34 29 34 40
21 20 20 20 20 18 18 18 17 18 19 20 21 22 22 23 24 25 25 30 33 35 38 41 43 47 50 51 51 55 60 56 47 40 39 43 42 39 41 37 33 43 46 45 41
21 21 21 20 19 19 19 19 19 19 20 20 21 22 23 23 25 22 24 27 29 31 34 37 39 42 45 49 49 51 52 48 54 46 42 40 42 47 41 40 31 36 45 48 46
19 20 20 22 21 20 20 21 21 22 22 22 23 24 24 25 27 20 25 27 29 30 33 36 37 39 42 46 47 52 52 50 47 58 58 50 46 47 46 42 40 28 32 33 42
17 17 17 17 17 17 17 18 19 20 22 23 25 26 27 27 27 28 28 29 30 31 33 35 35 38 40 41 47 50 46 46 51 56 58 56 57 55 51 43 40 50 36 30 42
17 17 18 18 19 20 20 18 19 19 19 19 21 22 24 27 27 28 30 31 33 34 35 35 38 40 41 42 43 44 47 50 49 50 53 58 62 64 57 43 45 49 51 40 41
16 15 16 16 17 19 20 22 22 22 22 21 21 21 22 22 24 25 26 27 28 30 32 35 38 40 43 45 43 45 49 50 50 49 52 55 57 64 61 59 50 51 51 53 45
16 16 16 15 16 18 19 19 20 21 22 22 23 24 26 24 25 26 27 28 29 31 33 35 37 38 40 43 45 48 51 52 44 50 48 52 59 49 53 62 64 56 55 54 58
14 14 14 14 13 12 13 17 19 21 23 24 24 26 28 25 27 28 28 30 31 32 34 36 38 41 43 45 46 47 50 51 49 50 53 53 58 51 47 53 63 68 64 61 60
15 14 14 15 15 14 13 12 13 14 16 18 20 24 23 25 25 28 30 32 33 35 36 38 41 43 45 47 47 50 53 53 53 48 55 54 56 56 52 54 55 59 67 67 67
15 14 15 16 16 16 15 15 13 13 14 17 18 22 24 24 26 28 29 31 34 36 38 40 42 44 47 50 53 57 58 59 57 58 57 46 43 58 56 57 57 59 62 64 69
16 15 15 15 16 17 18 18 17 13 13 14 18 19 21 23 25 28 29 32 34 37 39 40 43 45 49 52 55 58 63 62 63 63 65 65 66 63 60 60 58 61 62 61 60
17 16 13 14 15 17 17 19 17 17 15 12 15 16 18 20 24 26 30 33 34 36 38 41 43 44 46 49 53 55 58 62 65 67 69 70 72 69 63 64 60 51 63 62 60
16 16 15 14 15 15 16 17 17 18 16 13 12 13 18 20 26 27 30 33 35 37 39 41 42 44 46 49 47 53 52 55 59 63 68 61 73 71 66 67 70 67 64 64 63
16 15 17 15 16 16 17 18 17 17 20 16 20 19 21 23 25 29 33 36 37 39 42 38 36 39 43 39 31 39 38 39 46 48 55 62 61 73 69 69 72 69 66 63 66
19 17 16 17 17 18 17 18 18 18 15 21 19 22 25 28 30 33 35 38 38 38 31 33 33 34 31 27 26 29 42 43 44 43 51 66 50 75 72 73 70 56 57 60 66
19 17 16 16 19 17 16 17 19 17 18 21 22 24 26 29 28 32 34 30 22 27 24 26 30 32 32 26 18 19 25 29 34 34 43 40 40 58 67 66 66 47 29 28 31
21 19 19 18 18 17 16 16 18 18 18 22 24 23 25 25 29 31 25 21 19 28 33 33 33 22 30 23 29 21 29 32 38 33 25 29 35 41 48 52 55 44 42 43 44
24 22 21 20 20 18 19 21 21 22 23 22 22 23 23 23 27 26 14 19 26 32 34 33 33 29 28 26 24 27 25 22 31 32 37 28 34 39 32 43 45 45 29 41 48
29 24 22 21 20 20 19 20 22 23 24 25 25 24 25 23 24 20 15 18 30 31 32 25 41 30 18 22 21 23 22 25 25 30 31 25 30 12 17 30 32 42 42 39 47
29 27 24 23 22 21 20 20 24 27 27 26 24 24 24 24 22 19 18 21 27 31 29 30 27 14 15 13 17 20 18 15 19 25 24 20 15 8 19 36 37 47 44 27 44
30 29 28 27 25 23 23 24 25 27 29 27 23 22 23 22 24 16 16 20 23 26 24 20 19 19 15 10 19 22 22 22 32 24 23 27 26 28 11 43 35 32 29 48 56
31 29 28 26 26 27 27 27 29 28 31 28 24 22 21 22 21 10 13 19 21 22 22 20 17 18 11 14 19 16 16 27 26 22 26 25 27 27 23 43 45 32 40 19 41
32 32 30 29 27 26 26 27 28 32 30 28 24 22 20 20 17 8 12 18 18 18 20 21 17 19 18 17 16 23 21 13 22 18 18 21 34 36 25 33 50 38 36 23 44
33 31 30 29 29 28 28 29 30 30 31 30 24 24 20 17 15 13 13 15 17 14 17 21 20 22 24 21 18 19 22 10 18 21 25 23 25 30 33 16 55 31 17 18 47
34 32 31 27 29 30 31 31 32 30 32 27 25 25 21 18 15 12 13 15 16 18 15 22 25 26 23 24 21 20 16 30 21 23 23 25 27 23 27 23 19 15 23 26 53
34 34 33 31 31 32 32 33 34 33 26 28 25 24 22 19 16 13 13 15 15 15 15 20 26 25 23 17 18 14 14 16 6 25 30 32 30 25 21 20 11 8 15 38 49

GFSSW_500_spd_057.txt.gz
Wind_Speed
22 22 22 22 22 22 22 21 20 19 17 19 23 26 27 27 28 29 31 31 34 37 42 44 46 43 42 37 49 48 55 49 42 42 35 35 36 42 46 45 44 36 33 30 30
20 21 22 22 21 21 21 20 20 19 17 17 18 21 22 22 24 25 25 28 30 32 36 42 44 45 45 43 45 55 51 55 40 38 39 35 35 37 46 43 41 42 41 39 37
19 20 20 21 22 22 22 21 20 19 18 18 18 19 20 22 22 23 23 25 27 29 33 36 41 43 47 45 45 47 49 48 52 47 47 42 42 43 42 47 43 37 40 39 37
20 19 18 18 19 20 21 22 22 21 20 20 19 20 20 21 20 21 23 25 26 27 30 34 36 40 40 43 43 48 48 47 45 52 55 62 53 47 60 53 43 43 43 46 46
17 18 18 17 17 18 17 16 17 18 20 21 21 21 22 23 20 22 24 25 26 27 29 32 34 36 37 40 42 46 43 46 47 49 51 51 56 55 48 52 52 44 46 48 48
14 14 15 16 17 18 17 17 17 17 17 18 19 19 21 23 22 24 25 27 27 28 29 31 34 37 38 38 40 41 43 45 47 47 48 53 54 59 60 54 49 36 42 46 48
14 13 14 14 15 16 17 17 18 17 18 18 19 19 20 18 22 22 23 25 27 30 32 34 35 36 38 38 38 40 42 43 43 44 45 49 53 53 51 61 63 50 43 49 49
14 12 11 11 11 11 13 15 17 19 19 18 18 19 19 21 20 21 23 25 25 27 29 30 31 33 35 39 41 44 44 45 41 41 44 45 52 43 45 52 58 58 55 52 51
14 12 11 11 10 11 11 12 13 14 17 19 20 21 20 22 21 23 24 25 26 28 29 32 34 36 37 39 39 42 42 45 44 42 46 48 51 43 45 48 52 54 50 60 55
16 14 12 12 11 11 11 12 12 13 14 14 17 20 18 18 19 23 23 25 26 27 29 32 34 35 37 39 40 43 45 47 46 48 52 51 53 51 50 50 52 50 51 55 68
17 16 15 13 12 13 13 12 12 13 10 13 15 17 16 16 19 22 23 26 28 29 31 33 35 37 38 40 45 47 49 51 50 54 60 59 58 53 56 59 57 54 52 54 56
15 16 16 15 14 14 14 13 14 12 13 13 11 13 15 15 17 19 21 24 26 29 31 33 36 39 42 43 45 48 51 52 54 55 56 57 61 57 57 57 58 61 57 56 57
17 14 14 14 15 15 15 15 14 14 14 13 11 10 11 14 16 18 20 23 26 28 31 34 34 37 40 42 46 49 52 55 57 57 60 64 64 61 58 59 57 58 60 60 59
19 16 14 13 13 14 16 16 15 15 15 13 10 13 13 16 19 21 20 22 25 27 30 31 33 36 38 41 41 48 48 53 56 57 61 56 68 67 62 61 61 60 62 61 60
19 15 14 14 15 16 18 18 17 16 17 15 10 13 15 17 21 24 23 23 25 28 30 29 33 37 38 39 39 41 39 46 51 57 64 65 69 69 67 65 65 64 65 62 61
18 16 14 13 17 16 19 20 17 17 19 18 16 15 17 20 22 23 26 28 28 31 32 33 29 33 41 46 40 41 40 39 39 44 53 56 53 69 66 67 67 66 68 66 64
22 17 15 13 11 15 15 16 18 19 17 21 20 22 23 24 24 26 27 26 26 29 31 27 29 29 42 42 30 27 27 29 30 34 39 29 34 50 67 66 67 68 67 66 63
24 19 18 14 15 17 16 17 17 19 20 21 23 22 23 27 25 24 30 27 20 26 27 31 34 32 35 32 31 26 25 25 32 29 34 38 42 25 29 38 48 61 64 58 58
28 23 21 20 17 15 16 19 18 19 21 22 23 25 25 23 25 25 26 19 28 21 24 30 33 30 32 31 36 26 32 23 34 35 35 30 28 31 26 30 42 47 54 53 48
31 28 26 23 20 17 15 16 20 23 23 24 27 26 25 23 23 24 22 20 20 19 26 28 28 23 18 21 20 22 23 29 23 28 35 24 18 24 25 33 34 31 39 49 51
29 29 28 26 25 24 21 19 20 23 25 26 27 28 26 25 24 23 25 18 18 20 24 26 27 23 19 18 19 22 24 26 24 25 31 25 22 21 27 29 30 30 50 54 52
30 28 27 27 26 26 27 26 26 26 27 29 28 27 25 23 24 23 23 17 17 20 19 19 26 18 17 17 17 25 20 22 21 26 29 32 28 22 36 34 30 30 56 55 53
31 29 27 27 26 26 27 28 30 31 29 27 29 28 24 22 24 22 19 17 15 17 16 19 20 25 18 19 17 18 23 14 20 30 32 29 28 31 26 37 31 33 59 48 42
30 31 29 27 28 28 28 28 29 32 32 34 27 24 23 22 21 23 16 18 18 15 16 21 17 23 27 24 23 16 22 23 20 20 19 23 27 21 33 33 32 26 50 38 48
30 30 30 29 30 31 32 32 31 33 32 34 28 28 26 22 19 21 19 17 18 14 15 20 16 21 22 27 23 15 12 18 32 29 23 22 24 26 32 24 32 15 46 51 28
31 31 30 30 29 31 32 34 36 35 36 34 35 28 26 25 23 16 21 18 16 15 15 24 18 22 18 25 24 18 17 18 19 22 31 23 20 25 30 27 24 7 27 34 33
32 32 33 31 31 31 34 35 36 39 36 37 36 33 27 27 21 17 17 18 19 14 18 25 17 20 19 24 18 14 19 19 20 20 21 21 26 26 29 24 21 13 20 28 29

GFSSW_500_spd_060.txt.gz
Wind_Speed
18 20 22 23 24 24 24 24 23 24 22 21 21 21 26 28 26 29 31 34 39 40 43 40 40 40 45 45 44 43 39 33 54 49 38 34 44 48 45 40 33 32 27 23 29
17 17 18 20 22 23 24 24 23 22 21 20 19 17 18 22 24 27 29 30 32 35 37 38 42 43 43 39 41 46 43 36 42 46 50 46 38 45 50 46 40 39 38 34 31
17 17 17 18 19 20 21 23 24 22 21 19 19 18 16 17 20 23 26 28 29 31 33 35 40 43 44 44 44 42 43 37 44 50 45 45 53 37 49 52 48 42 45 43 39
15 15 16 17 17 18 17 17 20 21 22 20 19 18 18 17 18 19 21 23 25 27 29 32 34 39 43 45 44 45 46 45 40 47 51 45 43 52 41 46 53 51 47 51 49
14 13 13 14 14 16 17 17 17 16 17 19 19 20 20 18 19 19 21 22 24 25 27 28 29 33 36 40 44 45 45 46 44 43 47 51 55 49 55 50 46 54 56 55 56
14 13 13 13 14 14 15 15 17 17 18 18 18 17 17 17 21 22 22 23 24 26 28 29 31 32 33 35 38 40 41 42 42 42 47 52 54 61 54 48 56 54 48 52 55
14 12 11 11 11 11 12 13 14 15 16 19 19 19 18 20 20 21 23 25 25 27 28 29 30 32 33 34 37 39 42 43 41 41 42 45 50 51 48 53 64 70 64 52 55
14 12 10 10 9 9 10 11 12 11 12 14 16 18 18 18 18 21 22 23 23 26 28 31 32 35 36 37 37 39 41 41 40 40 40 42 48 42 46 49 53 53 57 54 54
14 12 10 10 10 9 10 10 11 13 13 12 13 14 16 18 19 21 22 23 25 26 27 29 31 33 35 38 40 42 43 44 44 45 46 47 44 43 46 52 53 53 59 66 55
12 11 11 11 11 11 12 12 11 12 12 12 12 13 13 12 19 20 20 22 23 25 27 30 31 32 35 37 39 41 42 45 49 48 51 50 49 49 48 53 55 57 59 58 62
13 13 11 11 11 12 14 14 11 14 10 11 12 11 11 14 17 18 17 20 20 22 23 26 28 30 34 37 39 41 44 47 51 53 53 53 51 49 51 53 55 55 56 57 56
10 12 14 11 11 12 12 14 13 14 12 14 10 12 11 12 14 16 17 19 20 22 25 27 26 31 33 35 38 41 44 47 47 50 55 58 54 51 53 53 53 55 58 57 56
16 12 10 12 11 12 13 12 13 15 14 13 13 10 10 11 13 14 14 17 20 21 23 24 27 30 34 37 39 41 44 48 50 51 54 57 57 57 57 58 57 57 58 57 57
18 15 12 10 13 13 14 14 15 15 16 13 12 11 14 15 16 17 14 20 22 22 23 25 28 30 32 35 38 41 41 46 50 52 55 56 60 58 59 61 62 61 60 61 60
22 16 13 11 11 15 17 19 19 18 17 15 15 14 16 18 19 22 20 21 21 23 24 24 25 27 31 34 37 39 38 43 47 50 53 55 61 55 58 60 60 64 66 64 64
24 21 18 14 14 13 14 16 17 16 19 16 13 15 19 22 22 24 25 24 23 24 25 24 25 29 32 35 38 41 44 47 49 47 52 50 50 59 59 60 63 64 66 69 69
27 23 21 19 16 14 16 17 19 20 20 20 18 19 21 24 24 27 29 26 26 27 23 20 19 22 27 33 37 38 36 43 39 30 36 28 40 52 52 50 60 70 68 69 70
29 27 24 22 20 18 15 15 16 17 17 20 21 21 25 26 28 28 28 27 28 29 25 17 12 15 22 29 36 37 29 34 40 30 25 20 33 26 31 43 49 58 68 70 71
27 27 27 26 23 21 21 20 19 19 18 21 24 25 24 26 28 28 27 29 30 28 17 15 16 17 24 28 32 28 31 31 35 33 34 27 22 20 24 33 40 41 45 55 60
27 27 26 26 25 25 24 23 23 25 25 25 27 25 24 24 25 26 24 28 30 28 14 15 18 14 19 24 25 27 26 21 20 30 36 29 24 29 28 29 35 38 44 44 51
27 27 26 26 24 24 24 25 25 25 27 28 28 29 29 28 25 24 24 21 29 23 15 16 14 15 16 23 21 22 22 21 25 27 35 33 26 22 25 25 31 34 36 43 43
30 29 28 25 24 24 25 25 26 28 26 28 30 31 29 27 24 25 25 25 26 17 15 15 16 17 13 19 20 20 21 19 24 23 23 31 28 24 29 27 31 36 32 36 33
31 30 28 27 25 25 26 27 28 30 32 32 29 28 29 28 28 21 23 24 25 18 16 16 15 18 11 16 19 19 18 23 23 23 25 28 27 27 27 29 31 35 26 27 32
32 32 31 30 28 27 25 28 30 31 33 34 34 34 31 28 26 25 23 22 22 21 20 18 16 18 17 22 21 17 15 21 27 29 30 32 30 23 23 27 30 33 28 33 33
33 33 31 30 29 30 29 30 29 33 34 36 34 35 32 30 28 24 27 18 20 19 21 17 13 17 17 23 22 19 14 15 22 24 29 30 35 29 32 25 25 25 30 13 33
31 33 35 35 31 28 31 30 33 32 37 37 38 35 31 31 30 23 22 19 19 21 20 19 17 21 10 19 21 20 14 15 16 20 21 24 24 27 28 24 24 19 21 10 32
31 31 32 36 38 33 33 32 33 36 34 38 40 37 31 31 28 23 23 18 16 19 20 21 19 15 8 13 16 18 19 21 18 19 19 21 17 22 23 25 22 13 8 20 34

GFSSW_500_spd_063.txt.gz
Wind_Speed
13 14 16 18 22 25 26 27 27 26 25 24 25 23 23 25 27 30 33 33 36 35 39 45 47 44 47 50 54 52 44 33 43 45 34 40 47 56 51 39 46 53 49 45 37
14 14 15 15 17 18 21 24 26 26 26 25 24 23 22 21 22 25 30 30 32 30 34 38 43 44 44 46 52 49 43 35 39 42 51 49 47 50 54 42 42 49 46 44 40
14 14 15 14 15 16 18 19 21 24 26 25 24 22 22 21 20 20 25 28 31 28 31 34 37 43 43 43 44 48 48 43 42 45 52 43 53 43 51 50 40 46 45 44 41
12 12 12 12 12 14 16 17 18 18 20 23 24 22 22 22 22 19 20 21 26 28 30 32 34 38 43 46 46 46 45 47 46 41 43 51 45 53 47 50 48 42 51 51 49
11 11 10 10 10 12 14 15 16 17 18 17 19 21 22 23 23 21 21 21 23 24 26 28 30 34 38 42 45 46 46 47 46 45 49 43 48 51 66 54 49 50 47 50 48
10 10 9 9 9 10 12 14 15 16 18 19 19 18 17 22 23 22 23 23 23 24 24 26 27 29 30 34 37 43 47 45 45 44 45 46 43 51 38 55 50 51 51 48 50
11 9 7 8 8 8 10 10 11 12 15 18 19 21 21 20 20 23 24 25 26 26 26 26 28 29 30 32 36 40 43 43 42 42 43 46 46 45 42 54 59 47 45 50 50
11 9 8 7 8 8 9 11 12 11 11 12 16 18 20 20 22 25 24 24 25 28 29 29 30 32 32 33 34 37 41 42 42 43 44 47 44 42 49 53 57 62 54 49 52
10 8 7 8 9 9 10 12 13 13 13 11 12 13 15 16 21 23 24 25 24 26 28 30 31 34 34 35 36 39 41 42 43 44 44 46 46 46 49 53 58 61 73 60 55
8 8 8 9 9 10 12 13 15 13 12 13 12 11 11 14 20 19 20 23 24 26 28 29 30 32 34 36 38 41 43 45 45 47 46 45 47 48 49 52 53 60 63 75 77
11 9 10 10 11 12 12 13 13 14 13 13 13 13 12 13 16 14 16 20 22 24 26 29 29 31 34 36 37 39 41 44 46 47 48 46 46 49 50 49 52 54 59 62 62
19 11 13 13 13 12 13 13 14 15 15 16 15 16 14 13 14 13 17 20 21 23 23 25 27 30 32 35 36 38 40 42 44 46 50 49 46 47 50 49 53 55 56 59 60
23 20 15 10 11 15 16 16 15 17 18 18 18 14 12 13 12 14 17 18 20 22 23 25 27 29 31 33 35 38 40 42 45 48 49 53 50 50 50 52 53 56 57 59 61
23 22 20 17 13 14 18 19 19 20 23 21 18 14 16 18 18 16 19 20 22 23 24 25 27 29 31 32 33 35 38 40 43 47 47 50 56 53 56 57 58 59 61 61 63
28 25 22 20 17 16 16 15 17 16 19 18 14 16 19 20 21 20 20 23 24 26 23 25 25 27 27 29 32 35 36 38 42 45 46 49 55 50 52 58 61 60 66 66 65
28 28 27 24 21 18 16 16 17 17 21 15 13 17 21 23 22 22 22 22 24 25 25 19 23 24 26 28 31 30 32 35 39 41 46 46 51 49 51 55 59 65 67 69 70
26 26 26 25 24 22 21 19 18 16 18 19 20 21 22 24 26 28 27 28 27 27 25 20 21 21 21 23 24 26 29 37 41 42 44 45 51 48 55 55 62 65 66 68 70
27 27 25 25 24 23 22 21 19 18 20 22 23 24 24 25 27 29 32 33 31 28 26 19 18 16 19 23 24 22 26 29 39 41 45 41 51 46 49 52 47 60 67 67 69
27 28 27 25 24 23 24 23 22 23 21 22 25 25 26 27 29 29 32 33 34 32 27 24 19 14 19 20 22 22 25 29 33 37 41 40 35 35 30 36 38 44 54 59 63
28 28 28 25 24 25 24 24 23 23 23 25 26 26 25 27 28 27 29 33 35 33 30 25 26 15 16 18 21 22 26 30 33 37 36 31 28 23 24 27 32 30 34 40 46
29 30 28 27 25 25 25 25 25 24 25 26 27 29 29 29 26 25 26 28 32 33 29 28 25 13 15 17 17 23 28 30 32 33 36 35 25 19 24 29 26 22 27 32 33
30 31 30 29 27 26 26 25 26 27 26 28 29 31 32 33 30 27 26 27 27 28 29 28 25 16 15 17 17 19 22 26 30 29 31 30 22 19 20 23 26 25 24 27 35
29 30 29 30 28 28 29 29 29 29 29 30 31 32 32 30 33 28 28 25 29 27 24 23 23 20 15 17 19 20 24 28 29 29 31 34 25 28 27 23 21 25 27 32 32
29 31 31 32 32 30 27 30 30 32 32 33 34 35 35 36 32 32 28 26 27 26 24 24 22 20 17 14 21 16 22 26 29 33 28 29 24 22 28 30 29 23 32 30 21
28 31 32 34 36 37 33 30 31 31 33 36 36 38 38 37 36 31 30 28 26 24 25 23 23 20 18 17 22 16 19 20 23 23 30 26 31 22 21 22 29 30 29 26 24
30 31 32 35 37 36 37 34 33 32 35 37 40 39 40 37 36 30 31 26 23 23 22 20 20 22 19 22 21 12 15 19 19 23 26 28 27 26 25 20 25 31 30 28 27
30 30 32 37 40 39 40 38 35 37 36 40 43 42 40 38 35 32 29 24 21 22 19 20 20 20 15 22 22 17 18 20 21 19 21 22 20 21 24 24 20 24 29 23 9

GFSSW_500_spd_069.txt.gz
Wind_Speed
6 7 7 7 8 9 10 12 15 18 20 23 25 26 27 27 27 26 26 25 27 28 30 32 35 37 41 45 46 52 57 59 52 45 46 52 56 69 55 48 49 43 44 48 46
5 6 6 5 6 7 9 10 13 15 17 19 21 22 25 26 27 27 26 25 25 27 29 32 35 38 40 45 46 49 59 59 54 50 48 55 56 67 61 47 49 46 40 46 45
4 4 5 5 5 5 7 9 11 14 18 21 22 22 22 23 25 26 25 26 25 26 27 29 33 37 40 42 46 49 55 57 56 51 52 48 58 63 71 47 47 47 44 42 47
4 3 3 4 4 5 5 6 8 11 14 17 20 22 22 22 24 24 25 26 26 25 25 27 29 34 38 40 43 45 47 53 57 53 52 52 48 61 74 47 47 46 51 44 48
5 3 2 3 3 3 3 5 8 10 11 13 15 18 20 21 22 24 26 27 27 25 24 25 25 30 35 39 41 45 43 46 52 55 50 47 48 55 69 50 51 49 51 49 50
4 3 2 2 2 2 3 5 7 9 10 11 13 15 17 20 22 24 24 26 27 26 25 25 24 25 30 33 38 41 42 41 47 52 50 47 48 52 53 71 55 51 50 54 54
9 3 2 2 3 4 5 7 8 10 12 13 14 14 16 18 21 23 24 25 26 27 27 25 25 24 26 28 30 34 36 40 44 49 49 50 49 43 53 68 61 62 56 56 56
16 14 8 7 7 8 9 9 10 11 12 13 15 15 16 17 19 21 23 26 27 27 27 26 26 25 25 26 27 28 30 34 39 44 46 50 49 47 49 56 62 62 66 61 61
20 16 14 11 13 14 13 13 14 15 15 15 15 16 17 18 17 18 21 24 27 29 28 26 26 27 28 28 29 29 30 29 33 35 37 41 46 46 47 47 48 66 66 68 64
24 21 18 14 13 11 14 16 18 18 18 18 17 17 16 17 19 19 21 21 22 27 29 27 27 29 29 29 31 32 31 32 33 34 32 35 40 39 42 42 43 49 60 72 70
27 24 21 18 17 14 13 16 18 19 19 18 17 17 18 20 20 19 19 19 19 21 24 27 29 30 31 30 32 34 35 36 36 36 35 35 37 36 37 40 41 43 43 50 68
28 27 25 22 19 16 15 15 16 17 18 18 18 19 18 18 17 16 16 17 18 19 20 22 23 27 30 33 33 35 35 36 36 37 39 38 39 39 39 40 41 42 43 44 48
27 26 26 25 24 21 18 16 15 15 16 17 17 18 16 14 14 16 17 17 18 18 19 20 22 25 28 30 29 30 34 37 38 38 40 40 39 41 41 43 44 46 46 47 49
26 27 26 25 24 24 23 23 21 19 19 15 16 15 16 16 16 17 18 18 19 20 20 21 22 23 25 27 30 31 34 37 38 39 39 39 41 38 41 44 45 48 48 49 51
24 25 25 25 25 24 24 24 24 23 22 21 19 17 15 17 19 20 21 22 22 22 21 24 25 24 25 27 29 32 33 35 35 36 38 35 42 39 38 41 44 48 51 51 50
23 24 25 25 25 24 23 23 23 23 22 21 20 18 19 18 17 17 20 21 23 24 24 21 26 25 26 29 31 34 36 35 35 35 35 32 35 37 34 38 39 40 45 51 54
24 24 24 25 24 25 24 23 24 23 25 25 24 22 22 22 22 21 20 20 21 24 24 25 24 26 28 31 32 33 35 36 36 34 34 34 36 32 36 42 44 43 44 48 51
23 24 24 24 25 24 24 24 23 24 25 26 26 26 26 27 26 27 27 28 26 25 25 26 27 26 28 31 33 35 34 33 36 35 33 34 36 29 32 41 47 50 51 52 53
25 23 24 25 25 26 26 25 24 25 25 27 28 27 27 28 28 29 29 30 31 32 33 32 30 29 28 28 31 34 32 32 33 33 32 30 27 26 25 35 41 45 48 49 52
28 27 24 24 25 26 27 27 26 26 27 27 28 29 28 29 29 30 30 32 34 34 34 34 35 33 30 28 29 34 36 30 27 28 26 23 21 17 25 31 34 35 37 41 48
30 29 29 26 26 26 27 28 30 31 28 29 28 29 30 31 30 32 31 35 36 37 36 34 35 33 29 27 32 36 35 30 28 25 22 21 17 20 22 21 25 32 35 38 42
32 31 30 29 28 28 29 30 31 33 33 31 30 31 30 32 32 33 33 36 37 37 37 35 36 33 28 28 33 33 31 31 29 26 25 24 20 16 19 24 27 31 34 35 36
32 32 33 31 31 29 31 33 33 32 32 32 32 31 31 32 35 35 36 36 38 37 36 33 34 31 28 28 30 28 27 28 31 30 24 25 16 25 18 19 24 27 32 36 38
33 33 32 33 32 33 31 33 35 34 32 33 33 33 33 33 36 40 39 38 37 36 35 31 32 31 28 27 25 28 28 28 31 30 24 24 22 19 22 25 26 28 34 36 40
33 34 37 40 40 39 35 33 32 35 36 37 36 34 35 35 39 41 39 38 35 33 33 33 29 28 24 25 27 29 29 29 31 26 31 20 26 21 27 27 27 26 29 31 33
35 35 37 40 42 38 39 38 35 36 38 36 37 35 36 40 43 42 43 38 31 27 30 29 25 25 22 19 23 31 28 26 28 28 33 29 24 28 29 30 32 30 31 29 31
34 33 34 39 40 37 36 37 36 36 32 36 36 35 38 41 42 42 38 32 27 20 23 22 22 24 17 19 23 28 21 26 28 31 34 33 33 36 36 34 33 31 33 34 37

GFSSW_500_spd_072.txt.gz
Wind_Speed
2 3 2 2 2 4 6 8 10 12 15 17 20 23 26 28 29 30 30 31 30 29 30 32 33 34 36 39 39 41 46 47 52 56 52 50 53 53 56 62 43 45 46 46 45
3 3 4 3 2 2 4 6 8 10 12 14 16 19 21 24 27 29 30 31 31 30 30 31 31 32 35 37 39 41 45 46 46 55 55 54 50 55 52 67 51 45 46 47 45
4 4 4 3 2 1 3 4 6 8 11 14 17 21 23 24 25 26 28 30 31 30 30 30 31 32 34 36 38 39 43 45 45 52 55 55 54 54 56 59 63 53 47 47 47
4 4 3 2 0 1 2 4 5 7 9 11 15 17 20 22 25 25 27 28 30 30 30 29 30 32 34 35 38 39 40 43 46 47 47 58 55 57 57 57 61 57 54 50 49
4 3 3 2 1 1 1 2 3 5 7 9 11 13 14 17 21 23 25 26 29 30 31 30 30 31 32 34 37 38 40 41 43 46 45 55 58 55 58 53 68 63 57 55 52
7 3 1 1 1 1 2 4 6 7 8 10 10 11 13 15 19 21 24 25 26 29 31 31 31 30 31 31 34 39 39 42 45 46 46 50 56 55 54 55 59 64 65 61 58
15 9 5 5 5 6 7 8 9 9 11 12 13 14 14 14 14 18 20 24 27 28 28 29 30 30 30 31 32 34 37 41 44 44 47 51 54 57 57 58 57 51 70 67 62
18 15 12 9 10 12 12 12 12 13 13 14 15 15 15 16 16 16 17 20 23 26 28 28 28 30 31 31 31 30 32 34 37 41 40 48 47 55 57 54 52 54 64 73 68
22 19 16 13 11 10 10 12 13 15 16 16 16 17 17 17 16 16 16 17 19 22 24 26 27 29 29 30 30 32 30 35 36 32 35 39 43 46 52 52 54 51 49 70 72
23 19 16 14 12 12 11 11 13 15 16 17 17 18 17 17 18 18 18 17 17 19 21 23 25 27 28 29 29 35 31 36 33 38 33 34 37 40 43 48 50 51 51 55 79
25 24 21 18 15 12 10 10 12 13 14 16 17 17 18 19 21 22 22 20 17 17 18 20 23 25 29 30 32 34 33 34 36 37 36 35 36 35 36 40 41 42 44 45 71
23 22 23 22 20 19 16 13 11 11 11 13 13 14 15 16 15 16 16 18 19 19 19 19 20 25 25 26 28 31 32 34 37 37 39 38 38 37 36 38 39 38 39 42 51
21 21 21 20 20 19 19 18 17 16 13 11 11 12 13 14 15 16 17 18 19 20 20 21 24 24 24 25 24 27 31 33 36 38 36 40 39 39 40 39 41 39 40 41 43
21 22 21 20 19 19 19 19 19 19 17 13 13 12 13 12 15 15 16 19 20 22 22 23 25 25 26 26 28 28 32 32 34 35 35 39 39 40 40 40 43 42 42 44 45
21 21 21 21 21 20 19 19 19 20 20 19 17 17 16 16 18 17 16 17 20 21 22 27 26 27 28 30 31 31 32 33 33 33 34 33 38 35 38 39 40 43 45 46 47
22 22 22 21 21 22 21 20 20 20 18 20 20 20 20 20 18 19 21 20 20 23 22 23 30 30 30 32 32 34 35 35 35 34 35 30 31 27 34 32 36 39 42 44 46
25 23 23 22 22 22 22 22 21 20 22 22 22 22 22 23 23 21 22 23 23 24 24 25 27 29 30 32 33 35 36 32 26 24 23 35 32 29 35 31 33 36 40 41 41
24 25 24 24 23 24 24 23 22 21 21 23 23 24 23 25 25 26 26 25 26 27 27 28 25 32 27 29 31 30 34 31 29 23 21 35 33 28 31 31 34 38 40 41 42
24 25 25 25 26 26 25 24 25 24 22 23 25 25 26 27 28 28 29 29 30 31 32 34 37 35 31 31 31 30 39 35 39 38 39 37 32 31 30 34 37 37 39 42 44
27 26 26 25 26 27 27 28 29 27 26 25 26 27 26 28 27 30 30 30 33 33 35 36 41 36 38 33 33 33 33 37 30 38 31 26 23 21 29 29 34 37 37 38 39
29 29 29 28 28 28 28 29 30 32 31 30 29 30 28 26 27 29 31 34 34 37 38 38 42 36 39 35 31 30 33 38 36 32 29 26 19 28 22 22 27 32 34 34 33
30 32 33 31 29 30 31 31 31 33 35 33 31 31 30 28 25 29 30 34 39 39 41 39 40 38 34 30 31 31 32 32 35 30 32 35 32 30 20 20 22 28 30 29 29
30 31 33 34 32 30 32 35 33 32 33 34 34 32 31 28 31 29 31 36 39 41 40 36 36 35 30 26 28 26 27 32 34 32 34 35 27 28 21 22 22 26 33 33 32
33 33 32 34 30 32 31 30 32 30 31 33 32 33 32 30 29 35 37 41 41 41 41 37 32 31 30 26 28 31 30 29 28 32 31 36 35 30 19 25 24 26 30 32 34
33 34 35 36 37 36 34 33 31 30 30 32 31 30 31 31 34 36 40 42 41 40 37 36 32 29 29 28 29 30 30 30 33 32 34 28 35 27 24 31 27 24 25 30 36
35 35 35 38 38 36 36 34 32 29 29 30 31 31 31 33 37 38 42 41 39 32 29 29 24 24 22 22 21 25 24 26 34 30 29 29 32 25 30 36 32 31 31 30 33
35 37 36 38 38 35 35 34 32 28 26 30 30 29 32 35 38 40 41 36 27 19 17 17 19 20 18 17 18 19 18 24 25 26 28 30 30 34 32 37 38 38 34 35 34

GFSSW_500_spd_075.txt.gz
Wind_Speed
8 7 8 5 4 4 5 7 9 13 16 19 21 24 26 28 30 31 32 32 32 32 32 32 33 34 36 37 37 38 41 40 40 41 42 46 47 57 54 57 51 46 47 56 44
9 8 8 7 5 4 4 5 7 9 10 12 14 16 19 22 25 28 30 31 32 32 33 33 33 32 34 36 39 42 43 40 38 38 38 34 35 54 55 55 58 62 51 48 47
10 8 7 6 5 4 4 5 6 7 9 10 13 15 18 21 25 25 28 30 32 33 34 34 34 32 35 37 37 41 41 39 40 38 40 40 39 43 51 58 56 61 68 71 49
8 6 5 3 1 0 1 3 4 6 8 11 13 16 19 22 26 26 29 29 29 31 33 34 34 34 34 35 36 40 39 39 40 42 44 45 49 49 47 45 59 61 59 66 56
8 6 5 5 4 3 3 3 4 5 7 9 10 12 14 16 18 20 24 28 29 30 31 33 34 35 34 35 37 38 38 38 40 43 45 48 49 46 51 58 61 62 55 56 54
10 6 4 4 4 4 4 5 7 8 8 9 10 12 14 16 16 16 17 21 26 28 29 32 35 34 35 36 36 37 40 39 40 42 39 47 48 46 48 53 61 65 57 52 56
13 10 7 5 6 7 9 10 11 11 12 14 15 14 14 14 16 17 17 18 19 23 28 30 32 34 36 36 39 37 39 38 40 42 42 45 47 47 43 52 58 70 61 57 53
16 13 9 7 6 6 7 9 11 13 14 16 17 18 17 17 17 17 17 18 17 18 22 25 29 32 34 36 37 36 37 38 36 39 42 46 43 43 45 48 55 68 61 59 58
19 14 12 9 8 6 5 5 6 8 11 12 15 16 16 17 17 18 18 18 18 18 19 20 25 28 31 32 35 36 36 36 32 42 42 40 42 39 40 48 52 61 58 60 52
21 20 19 15 11 6 5 4 5 6 8 8 10 11 13 15 17 18 20 22 22 23 22 21 21 23 26 29 31 18 23 29 35 29 43 36 38 35 36 50 49 51 54 56 55
18 19 18 18 17 15 13 10 9 8 8 8 9 9 10 10 11 13 15 16 19 21 22 23 22 22 22 28 31 35 36 39 35 37 43 43 38 37 36 45 47 45 47 51 55
16 16 17 17 16 16 15 15 14 13 11 12 10 11 11 11 12 12 13 14 15 17 18 21 22 24 27 25 27 28 32 36 38 39 45 45 43 40 40 44 42 41 40 44 49
17 16 16 16 16 16 16 16 16 15 14 12 12 13 11 13 13 15 14 15 16 18 19 20 20 26 26 27 28 29 31 33 36 37 44 43 40 41 39 42 47 43 40 41 43
18 18 17 16 17 17 17 17 17 17 16 13 15 13 15 16 14 16 17 17 18 19 21 21 24 26 27 29 31 32 31 35 39 38 39 31 41 37 37 44 46 44 44 42 44
18 19 20 19 19 18 18 19 18 19 20 17 18 18 19 18 20 18 18 18 19 21 23 20 28 27 27 29 32 35 34 38 36 37 38 36 38 35 29 34 42 41 42 44 45
21 19 19 20 21 21 20 20 21 21 19 20 20 21 21 20 21 24 23 22 22 24 25 23 26 32 31 31 34 34 36 37 37 35 35 33 31 31 19 34 37 38 40 41 43
21 22 20 20 21 22 22 23 23 22 23 24 23 23 24 23 25 26 25 27 27 29 28 27 29 31 34 35 33 35 32 29 27 27 28 26 30 23 18 33 27 35 31 36 39
21 22 22 21 21 22 23 23 23 25 27 26 26 27 27 27 27 26 27 28 28 30 32 30 28 22 31 42 32 25 29 28 29 27 27 21 26 25 28 29 43 38 35 35 35
22 23 22 23 22 23 23 24 23 26 27 29 30 31 29 31 30 31 29 30 29 30 30 31 29 24 39 43 41 30 32 32 40 40 34 36 36 33 43 38 39 34 36 37 37
24 24 23 23 24 24 24 24 28 26 27 30 30 33 32 32 36 31 29 31 30 31 36 37 43 32 31 36 43 37 30 33 33 34 33 33 30 31 33 40 36 40 38 39 41
27 26 26 26 27 24 25 25 26 29 30 30 30 32 34 34 34 32 30 28 36 35 38 42 42 42 32 34 34 30 30 31 30 37 37 30 24 29 33 33 18 24 36 38 39
26 29 28 27 28 28 28 28 26 30 32 31 29 30 32 33 32 31 28 28 35 42 43 39 41 44 35 30 30 35 35 31 34 34 32 33 36 39 24 33 30 30 29 28 37
26 26 27 28 29 30 30 30 30 29 31 30 30 29 28 30 33 27 28 30 37 39 43 45 43 42 37 27 28 40 32 34 32 33 39 37 35 27 36 38 28 29 27 28 30
27 27 26 27 29 29 28 29 29 30 30 31 30 30 29 28 28 31 33 34 42 46 49 45 40 36 35 32 31 38 31 27 28 31 34 32 34 34 36 27 19 27 28 34 31
32 28 27 30 31 29 29 30 28 30 30 31 26 29 28 26 29 32 35 40 43 44 45 40 36 28 27 28 27 30 32 30 41 38 37 32 30 31 35 30 26 32 33 35 30
33 31 28 31 32 32 31 28 30 28 31 29 28 27 27 28 32 34 36 38 41 38 35 29 23 17 14 16 20 25 24 27 31 34 39 36 38 30 25 28 33 31 35 40 36
35 37 33 34 33 32 31 31 31 30 26 27 26 26 26 29 33 34 37 39 36 28 20 15 13 14 14 16 15 19 11 15 19 21 24 27 27 23 27 28 31 44 40 42 41

GFSSW_500_spd_078.txt.gz
Wind_Speed
14 12 10 8 6 5 6 8 10 11 13 15 18 21 24 26 27 28 28 29 30 30 31 32 32 34 35 36 37 36 36 34 33 35 39 40 35 41 54 58 43 55 46 51 57
15 14 10 7 6 5 4 3 4 6 8 11 13 16 18 21 22 24 26 28 30 31 32 33 33 35 35 36 38 40 40 37 34 36 37 35 31 27 44 54 57 48 45 51 63
13 12 9 7 6 4 2 2 2 3 5 7 9 11 13 14 17 16 21 24 27 29 32 33 34 35 35 36 37 40 40 40 39 38 39 39 38 29 30 49 57 56 44 49 56
11 10 7 5 4 3 2 2 3 4 5 7 10 12 15 18 19 18 23 25 27 29 30 32 35 36 36 37 36 39 40 41 41 42 42 43 42 38 39 35 45 53 54 43 51
9 7 6 6 5 4 3 3 4 5 7 9 10 12 13 15 16 17 16 19 24 28 30 31 32 35 36 36 37 38 39 39 40 42 46 47 48 50 48 48 44 50 62 57 51
12 8 6 4 3 3 3 4 6 8 9 11 12 14 15 16 14 16 16 16 18 21 25 28 32 33 32 35 38 37 39 40 41 42 44 46 50 47 48 47 49 51 63 67 51
14 12 9 8 6 4 5 7 8 10 11 13 14 16 17 17 17 16 16 16 17 17 20 24 28 30 33 35 36 39 41 40 40 40 42 43 49 44 45 45 50 46 51 59 65
14 13 10 9 8 6 4 4 5 7 10 12 13 15 17 18 18 18 18 18 17 18 19 19 23 26 30 33 35 37 39 43 39 40 40 42 47 42 45 48 48 45 45 49 59
16 16 14 11 8 7 4 3 2 3 6 7 9 10 9 15 15 16 18 19 19 20 19 19 19 21 24 29 31 35 37 36 37 34 33 36 47 42 41 43 46 47 47 49 60
13 14 14 13 11 10 9 6 6 6 7 8 10 9 8 10 13 14 16 18 19 21 23 24 24 23 23 24 27 28 16 23 24 25 25 43 46 43 39 38 40 47 48 50 50
12 11 13 13 11 11 12 11 9 8 9 8 10 10 10 11 11 11 13 14 15 16 18 19 21 22 24 25 26 28 33 40 38 28 34 38 42 48 42 39 40 47 46 50 45
13 13 12 14 13 12 13 13 14 13 12 13 12 12 12 11 13 14 15 16 16 17 18 18 19 20 25 26 28 29 30 32 34 42 44 46 49 49 51 43 43 44 46 45 41
15 15 15 13 16 15 15 16 16 16 15 14 15 16 14 15 15 16 15 18 19 19 20 21 20 22 27 24 28 29 31 32 35 36 37 40 47 49 44 40 41 43 46 47 49
15 15 17 17 16 18 18 18 19 20 20 17 14 16 16 18 18 18 18 20 19 21 22 22 22 26 29 28 30 33 30 30 32 31 38 31 44 39 35 30 28 44 49 48 47
18 17 16 17 18 18 20 19 20 22 23 19 17 19 19 20 23 23 18 23 21 23 27 22 25 27 31 28 31 33 32 36 39 39 38 39 37 41 34 36 36 32 37 44 41
18 19 19 17 18 18 19 20 21 21 24 26 25 22 22 24 24 27 27 24 27 27 29 29 26 29 30 32 35 33 39 41 39 33 38 38 32 36 29 28 33 30 42 47 44
18 19 20 21 17 19 20 20 20 19 23 22 24 26 26 25 29 31 32 32 30 32 31 30 28 28 31 35 33 35 34 35 31 31 35 28 27 42 25 31 36 38 45 45 38
20 18 21 22 21 20 21 20 19 20 16 31 28 27 29 29 30 32 32 33 33 34 35 34 30 23 23 33 34 31 32 29 40 41 35 33 30 36 24 24 28 36 46 49 42
21 20 18 20 22 22 21 22 21 21 25 24 31 30 29 30 28 32 32 34 35 35 39 38 39 31 28 35 46 42 42 44 40 41 43 41 45 39 41 39 32 37 34 38 41
24 21 21 21 20 22 22 21 23 26 24 27 29 31 31 30 33 33 36 33 34 32 36 34 44 40 41 41 46 43 44 43 44 50 47 40 37 35 31 33 29 35 39 41 38
25 22 23 21 20 21 23 22 22 25 27 26 27 30 31 33 32 33 34 33 33 35 35 41 45 43 42 37 29 37 43 42 43 42 41 48 41 38 34 37 31 39 40 40 41
27 26 24 21 21 22 22 24 23 24 28 27 29 28 29 29 32 31 32 31 29 29 37 40 49 51 51 36 34 40 43 32 38 39 41 40 38 30 30 39 33 37 26 20 28
28 29 26 24 23 23 26 25 26 25 27 28 30 31 29 28 31 29 28 29 29 34 39 43 48 51 47 39 31 34 40 45 43 45 45 44 36 26 36 46 37 30 34 29 33
31 30 32 24 24 25 27 25 26 29 28 25 29 32 31 28 27 30 28 29 32 35 45 47 47 44 41 37 35 37 40 38 34 31 39 44 36 30 26 37 42 45 34 26 30
34 33 31 29 29 27 27 28 27 28 30 31 27 29 28 26 27 27 29 33 35 37 45 49 49 41 38 27 26 26 28 31 30 37 35 32 37 33 30 31 44 34 22 28 33
36 34 35 34 32 30 30 29 30 28 32 26 32 28 25 28 29 26 31 33 35 38 38 35 36 29 17 15 17 20 18 20 23 26 31 36 41 37 37 32 30 38 40 48 33
38 39 38 34 35 33 31 31 29 31 24 30 29 26 25 27 27 29 32 34 37 36 30 22 18 16 13 17 18 15 6 18 17 17 22 22 25 24 25 34 39 37 35 43 35

GFSSW_500_spd_081.txt.gz
Wind_Speed
17 15 11 8 6 6 8 10 12 13 15 16 18 19 20 21 22 23 24 25 26 26 27 29 29 30 33 32 34 34 34 31 30 30 32 36 42 41 40 43 40 48 47 41 53
17 14 11 7 6 5 4 5 6 8 9 11 12 13 14 16 17 19 21 23 25 26 27 29 31 33 33 34 35 36 35 33 32 32 32 31 39 42 36 44 44 44 45 34 49
16 15 12 10 8 7 6 4 2 0 2 3 4 5 7 8 9 12 16 17 19 22 24 27 30 32 34 35 36 37 35 36 34 35 36 35 36 42 38 46 43 41 39 31 36
13 11 9 7 6 4 3 3 2 2 3 5 6 8 10 11 9 14 16 19 21 23 25 27 29 31 32 34 35 37 37 39 38 38 37 39 41 43 46 48 45 44 48 51 41
11 9 7 6 6 5 4 3 2 2 4 6 8 9 10 10 10 13 15 17 18 20 24 28 30 32 33 33 35 36 37 38 39 39 41 42 43 45 45 46 45 42 54 57 40
11 9 7 5 3 2 3 5 6 7 8 9 11 12 14 12 13 15 15 15 17 18 18 20 25 30 29 30 34 34 37 38 39 41 41 44 46 46 41 42 47 51 53 55 57
12 10 8 7 6 4 2 3 6 8 9 11 12 14 16 15 14 18 17 18 17 17 17 20 20 21 25 29 31 34 36 36 36 37 39 41 43 44 41 43 43 44 52 59 53
13 11 9 5 4 4 4 2 2 1 4 4 7 9 10 14 15 15 17 19 20 20 19 19 18 20 22 24 27 31 33 35 31 35 37 39 45 40 41 47 46 46 48 51 49
11 10 9 8 8 5 3 2 3 4 4 6 6 6 6 9 11 12 15 17 19 21 21 22 22 21 21 22 23 27 27 30 30 31 33 32 45 41 42 46 47 48 47 49 48
10 10 10 10 8 8 8 7 6 6 7 7 8 8 9 9 12 10 12 15 17 18 21 24 25 25 26 27 25 25 28 29 32 28 22 25 36 38 44 46 43 45 46 48 51
12 12 13 13 12 11 10 11 10 10 10 11 11 11 9 11 11 14 14 15 15 17 19 21 22 21 24 27 29 31 31 33 33 33 34 38 39 41 46 46 41 42 43 47 48
12 13 15 16 16 15 15 15 15 14 13 14 15 14 14 13 13 13 15 17 17 18 20 22 21 23 24 26 28 29 32 32 30 30 37 41 45 46 45 46 48 45 42 44 46
12 14 14 15 17 19 20 19 19 19 16 18 17 17 16 16 16 17 17 18 19 19 22 23 21 25 27 28 30 29 30 34 34 34 37 41 49 51 51 54 53 46 42 42 45
15 15 15 16 17 17 18 20 22 22 21 17 18 17 17 18 18 21 21 22 22 22 24 25 23 26 28 30 31 34 30 36 38 42 45 41 50 46 45 47 45 42 40 41 39
18 17 17 16 17 19 18 19 20 21 22 20 16 18 19 21 22 23 22 23 25 27 29 23 26 26 29 27 31 37 31 36 40 44 46 43 46 43 39 39 35 25 34 38 36
23 21 20 18 18 20 20 20 19 19 22 24 23 18 17 20 22 27 28 27 28 29 31 31 28 31 29 30 28 30 38 41 42 45 52 43 36 45 37 29 26 34 32 30 35
24 25 21 20 18 20 21 20 18 18 19 18 22 28 23 23 28 28 31 34 31 34 31 31 30 29 29 31 30 35 34 41 49 49 53 40 34 45 28 31 37 30 35 31 43
28 27 24 22 22 20 19 19 18 20 21 27 30 28 26 25 26 29 30 32 31 32 39 43 37 28 27 26 29 39 43 38 50 52 51 49 51 46 30 34 25 29 26 30 39
28 29 27 25 23 20 19 18 18 21 24 29 27 29 28 26 32 32 30 33 33 32 39 42 40 32 29 34 37 43 42 46 49 52 51 53 43 53 25 34 35 45 42 31 39
31 28 30 25 22 20 19 18 19 22 26 26 23 26 29 28 31 34 34 35 38 38 41 42 46 37 34 34 38 48 50 50 52 56 61 59 60 52 45 39 44 36 34 34 37
30 29 29 26 22 20 20 20 21 23 27 27 27 30 30 32 31 30 31 32 35 38 36 38 43 39 38 39 38 36 43 48 52 49 52 53 42 44 37 38 34 38 39 38 41
32 31 31 29 25 24 23 23 23 22 26 26 29 30 31 31 32 30 30 31 32 34 36 33 39 42 44 43 44 43 49 46 48 52 57 43 37 24 39 36 33 35 43 45 41
36 35 32 30 30 27 27 24 26 26 27 28 27 30 31 31 34 29 28 27 31 32 33 35 41 45 45 42 41 41 46 47 50 45 49 51 57 45 41 36 34 32 30 37 41
37 37 37 34 35 32 27 27 27 27 27 31 29 29 31 30 29 33 27 27 29 29 33 40 44 45 48 45 39 39 36 37 50 53 50 42 36 24 22 32 35 29 32 40 45
37 37 36 37 35 35 33 30 29 29 29 31 29 31 32 30 29 28 27 26 26 30 36 43 44 44 42 36 30 30 23 20 23 35 40 36 38 37 23 25 26 32 32 37 40
37 36 36 33 36 35 35 34 34 31 31 27 32 30 30 30 31 24 26 28 29 30 34 38 41 35 24 19 21 23 19 16 11 13 23 28 28 30 33 29 28 39 44 40 33
34 35 33 32 34 37 36 38 37 35 27 29 32 31 29 26 27 26 27 28 31 33 33 28 22 20 14 19 19 16 17 15 16 18 22 22 22 22 24 27 32 38 38 38 28

GFSSW_500_spd_084.txt.gz
Wind_Speed
18 15 12 10 8 10 13 15 17 18 19 19 20 20 20 20 21 21 22 24 26 26 27 28 27 29 29 29 33 34 33 28 26 31 29 34 41 45 48 45 47 52 45 54 60
15 13 11 9 8 6 4 5 9 12 14 16 17 18 19 19 20 21 22 24 25 26 28 29 31 31 31 30 32 34 32 30 29 31 30 28 36 40 46 48 45 38 42 56 57
15 14 12 11 10 9 8 7 5 4 4 5 6 6 7 7 11 11 14 17 20 23 26 30 32 33 33 35 35 36 35 34 34 35 36 32 36 40 44 48 49 46 37 46 50
11 10 8 7 6 5 4 4 4 4 4 5 5 5 5 6 10 11 13 14 16 19 21 23 25 28 31 33 36 39 40 40 36 36 37 38 35 41 44 45 47 50 51 48 53
9 6 4 3 3 2 2 2 3 3 4 5 5 6 6 7 12 12 13 14 16 19 21 24 27 29 31 31 32 34 35 39 41 41 41 39 40 41 41 46 48 49 50 51 52
11 9 7 4 0 2 3 4 5 6 7 8 9 10 10 11 14 15 14 15 15 16 18 21 25 26 27 28 31 33 36 36 37 39 41 43 42 42 37 40 45 48 48 52 54
8 7 6 5 6 5 4 4 4 5 6 8 10 12 14 15 17 19 20 18 18 19 19 19 19 20 20 23 28 31 33 32 31 32 33 36 41 42 37 35 37 41 45 50 52
6 5 4 2 1 0 2 4 4 3 4 4 5 7 7 9 12 18 22 22 21 21 22 21 20 20 21 21 23 25 27 28 26 31 30 32 42 38 37 41 42 42 45 53 56
6 5 4 4 4 4 3 3 5 7 6 8 11 9 10 10 9 11 13 17 18 20 23 24 24 23 25 23 23 25 25 26 26 30 37 40 43 42 44 45 47 47 45 44 49
10 10 11 9 8 8 8 8 7 8 9 8 11 11 13 14 14 13 15 14 15 16 20 23 23 24 26 27 27 29 31 30 30 33 38 40 38 40 44 45 48 48 49 49 48
13 13 14 16 15 14 12 12 12 12 11 11 13 13 12 15 16 17 16 18 17 19 21 21 20 22 25 28 29 32 33 34 33 35 36 38 35 36 41 40 42 44 47 48 49
16 16 15 16 17 18 18 17 16 15 17 15 15 18 15 16 17 18 17 18 19 22 22 23 21 25 26 28 30 31 32 32 33 33 35 36 40 40 41 45 43 42 42 42 43
20 19 18 17 18 18 19 18 18 18 15 21 20 19 20 19 19 18 19 19 20 20 23 24 23 28 30 31 34 35 34 32 33 33 36 39 42 41 43 44 45 47 46 45 44
24 24 23 21 20 19 20 21 18 17 17 18 20 20 19 18 21 23 21 20 21 22 26 23 25 28 30 30 31 35 32 35 36 39 43 40 47 40 36 38 50 56 58 52 45
25 27 27 25 23 22 20 20 20 20 20 18 18 20 21 23 22 25 25 25 26 27 29 24 27 30 32 30 33 38 36 38 39 40 44 46 47 43 39 39 39 42 45 49 49
28 28 29 29 26 26 23 20 19 20 23 25 23 23 18 17 20 25 27 28 29 30 32 28 29 33 33 32 34 39 40 40 43 45 50 46 46 45 37 35 35 37 39 42 46
32 31 30 28 27 26 25 23 20 21 23 25 26 23 19 18 22 28 29 27 29 32 30 30 25 25 30 35 38 41 43 48 49 47 51 45 49 48 41 38 42 39 33 37 40
35 32 30 30 29 28 27 24 21 24 27 27 29 27 27 27 27 29 31 33 35 34 39 40 35 28 31 34 39 41 40 41 47 49 53 51 56 50 40 43 44 41 33 39 34
31 33 32 30 30 27 29 24 23 25 27 28 27 26 26 29 34 33 32 33 34 38 42 44 44 38 33 31 34 41 45 45 50 55 58 58 57 54 39 41 43 46 35 41 39
28 29 33 33 31 28 28 25 24 25 26 28 28 27 25 28 31 36 35 33 37 40 43 44 48 39 35 37 35 41 41 42 50 57 59 63 64 61 54 51 41 35 39 41 43
34 32 32 36 33 31 27 27 26 29 27 27 27 28 28 29 30 30 33 30 34 42 43 42 41 44 40 37 34 33 38 43 48 52 57 61 60 54 47 39 39 34 29 34 39
33 33 34 35 36 34 31 28 31 30 31 27 28 30 29 30 31 30 29 33 32 37 41 38 41 41 39 37 34 36 42 43 47 53 56 53 54 39 50 39 37 24 33 30 39
34 34 32 32 32 35 33 30 29 31 30 30 32 31 28 29 35 30 29 29 33 33 34 36 36 38 37 38 38 41 44 44 46 50 50 55 53 45 40 28 43 41 38 30 37
33 33 34 34 35 34 34 32 30 31 31 32 33 32 32 31 30 33 28 28 28 29 32 36 37 37 39 41 43 43 33 31 34 35 37 39 36 35 33 36 36 28 37 34 37
36 34 32 32 33 34 36 36 33 30 33 33 31 32 32 31 29 30 30 28 26 29 32 35 37 39 36 39 39 34 25 21 26 26 28 19 23 23 30 29 34 33 31 33 37
37 35 35 32 32 32 33 36 35 33 33 30 31 28 30 31 32 28 30 29 25 26 30 34 37 38 33 27 29 23 19 23 21 20 22 25 28 23 19 23 27 30 34 34 35
37 37 34 31 32 30 29 33 34 39 33 33 30 30 29 29 30 31 29 26 26 26 30 31 32 32 21 22 16 16 19 20 19 21 24 26 26 28 29 28 28 30 32 31 35

GFSSW_500_spd_087.txt.gz
Wind_Speed
11 9 7 8 11 14 17 21 23 24 24 24 25 25 25 26 25 25 23 27 29 30 29 29 30 31 30 30 32 33 37 34 30 33 31 37 44 48 52 59 50 56 59 56 58
15 12 10 7 4 3 6 10 15 19 22 23 23 23 24 24 26 26 26 26 26 30 31 32 31 31 31 31 33 34 33 30 30 33 31 38 45 45 50 53 53 44 48 51 56
11 10 10 9 9 8 6 5 5 7 10 12 14 16 18 20 23 24 26 26 27 28 30 31 32 32 33 34 33 34 32 34 34 35 34 33 41 39 47 49 47 47 46 55 58
7 5 5 4 4 4 5 6 6 7 8 8 9 9 10 12 13 15 16 17 18 20 22 24 27 30 32 33 36 35 36 37 34 36 37 35 39 41 42 41 46 49 50 52 53
8 5 2 2 1 1 2 3 4 6 7 7 8 9 10 12 14 15 15 17 18 18 19 21 23 24 26 28 29 32 32 37 37 38 39 39 38 39 39 42 44 45 47 49 51
10 9 7 4 3 3 4 7 8 9 9 10 11 12 12 12 16 16 16 18 19 20 20 22 23 24 25 25 30 34 35 35 37 34 36 37 34 36 34 41 45 45 45 46 48
6 6 6 6 6 4 4 5 5 7 9 11 13 16 16 16 19 22 21 21 23 23 24 24 24 25 24 27 30 32 36 37 36 36 36 38 42 39 33 37 42 43 45 44 44
6 5 4 5 5 5 4 4 4 5 6 7 8 9 8 14 19 21 21 22 25 26 27 26 27 27 27 27 27 29 31 30 30 35 37 43 43 41 44 44 46 49 53 53 53
12 10 9 8 8 8 8 7 8 8 10 10 12 13 11 13 14 14 19 16 17 20 23 25 27 29 30 28 27 28 30 31 30 34 38 42 42 43 44 46 47 48 48 50 51
15 16 16 14 14 13 13 13 12 12 12 12 14 14 15 16 16 17 19 19 19 19 20 21 21 23 26 28 30 33 35 33 32 31 36 37 36 39 42 43 45 47 47 48 51
16 18 19 18 17 17 17 17 17 17 17 16 17 17 17 19 20 18 20 21 23 24 24 24 23 24 26 26 27 29 33 34 34 35 42 41 41 37 39 40 41 42 44 47 48
20 20 20 21 20 19 18 19 20 19 23 19 20 24 19 19 22 22 21 22 23 26 26 24 24 27 29 30 31 32 33 31 33 33 37 38 41 40 41 43 43 43 43 43 44
20 23 24 24 22 23 23 22 19 19 21 26 23 25 24 24 26 25 24 24 25 26 27 26 25 28 28 30 34 33 34 36 37 35 40 42 42 39 41 42 40 41 42 42 42
19 20 23 27 28 25 25 24 23 22 21 23 25 27 27 25 25 25 27 26 27 29 30 23 29 30 32 30 35 37 34 39 42 43 43 41 48 40 37 38 39 38 44 46 46
24 25 22 26 25 29 30 26 25 24 24 24 26 26 25 24 24 27 28 30 31 30 32 28 30 34 34 34 36 40 39 42 44 46 48 47 49 44 39 34 31 37 43 44 46
30 28 30 29 26 25 30 31 26 26 27 26 26 26 25 26 28 31 30 30 29 32 35 29 35 37 37 37 38 42 44 43 44 47 52 46 48 50 46 42 33 35 39 38 37
35 32 31 31 28 27 27 31 29 27 30 31 30 27 25 25 24 26 29 32 32 33 32 33 29 34 36 36 33 36 40 44 48 48 50 48 53 52 48 44 44 43 41 43 46
29 31 30 30 29 28 29 28 31 32 32 33 34 30 28 25 26 28 30 31 33 34 37 37 32 29 31 32 34 33 37 40 51 51 51 46 53 47 48 51 49 46 48 47 47
29 30 33 31 31 29 30 31 30 33 35 35 33 30 30 29 30 29 29 31 36 38 39 41 43 39 29 30 33 39 44 45 49 51 54 52 52 50 53 55 53 51 51 51 51
26 29 31 33 30 31 33 33 32 32 35 34 33 31 30 31 34 34 32 32 36 42 42 43 46 43 39 36 37 40 46 46 48 56 57 53 54 57 60 57 55 56 58 54 43
25 27 28 29 32 31 30 33 35 32 33 35 35 33 32 31 31 33 36 33 38 38 40 43 47 46 42 37 37 40 44 43 42 44 49 57 61 62 58 60 61 53 44 33 36
24 27 27 29 29 31 32 31 31 26 32 35 37 37 35 34 30 29 31 35 34 37 38 39 45 45 42 38 38 39 37 38 44 48 53 56 64 50 44 50 50 50 47 40 33
28 28 28 31 29 28 30 31 33 29 24 31 35 37 37 36 34 30 30 31 36 36 38 39 41 41 39 36 37 38 39 42 46 51 55 53 44 26 29 35 35 35 33 34 34
30 30 30 32 33 30 29 31 32 33 26 28 31 34 32 33 33 33 32 30 33 37 38 40 40 37 37 35 36 38 40 40 44 48 42 37 30 18 24 27 25 29 29 26 26
33 32 31 33 35 34 31 33 35 33 31 26 27 31 31 32 31 32 33 30 30 33 35 37 39 36 32 34 39 42 40 34 31 30 34 26 31 25 24 24 27 24 27 27 28
35 33 32 34 34 35 37 33 35 35 34 30 30 27 28 31 32 26 34 32 29 31 34 36 36 33 30 35 38 35 31 32 27 27 29 26 24 25 29 30 27 24 25 28 30
36 35 35 34 36 38 37 38 35 36 34 35 33 31 27 29 29 29 31 29 31 30 31 34 32 31 32 32 30 28 24 22 24 25 26 27 28 29 30 30 31 32 28 31 29

GFSSW_500_spd_093.txt.gz
Wind_Speed
13 9 6 4 3 5 11 18 21 22 23 24 24 25 24 24 24 24 24 25 24 25 27 30 30 31 34 38 38 39 42 41 39 39 36 40 45 45 51 50 50 50 51 46 43
14 12 8 4 4 4 4 7 15 19 20 22 23 23 23 23 23 24 23 24 23 23 23 27 30 31 31 32 34 36 37 37 36 38 39 42 45 46 49 52 51 51 53 48 48
10 9 9 9 6 3 6 8 8 11 15 18 20 21 22 22 23 23 24 25 25 25 24 24 27 30 30 31 32 31 31 33 32 33 34 33 38 44 48 48 49 52 53 53 52
12 7 4 4 5 4 3 3 6 10 13 15 17 18 19 20 21 23 23 24 25 25 25 25 25 25 28 30 30 30 31 34 32 33 33 32 34 38 40 44 48 51 54 53 53
11 9 8 4 3 2 3 3 3 5 8 10 13 16 17 18 20 21 21 22 23 24 25 25 25 25 26 27 29 29 30 31 33 34 34 36 33 37 39 40 41 45 49 53 53
9 10 6 5 4 3 4 7 8 9 9 10 11 12 13 14 16 18 18 19 20 21 21 22 22 22 23 24 26 28 28 28 29 30 32 35 37 37 39 43 43 44 44 46 51
9 7 8 6 4 4 4 3 5 8 10 13 15 16 17 18 20 19 19 20 21 21 22 22 23 24 25 27 27 28 29 30 30 31 31 33 34 34 39 44 46 46 47 48 48
13 11 9 9 9 7 7 8 7 7 8 9 10 11 13 15 15 15 16 19 22 24 25 27 28 28 28 30 30 32 34 34 35 34 35 38 35 36 38 40 43 46 49 50 50
12 12 12 12 12 12 12 12 12 13 13 13 12 13 14 14 14 13 14 14 14 15 17 18 22 25 27 30 31 33 35 34 33 35 36 39 41 35 37 39 40 42 44 48 52
15 13 13 11 12 14 14 16 17 18 18 17 17 18 18 18 18 19 18 19 20 19 19 19 18 17 20 23 25 25 24 23 23 27 32 34 35 38 35 37 39 39 41 43 46
17 15 12 13 15 15 15 16 17 18 22 22 22 22 21 21 22 22 22 22 23 23 23 22 21 22 27 25 25 25 25 25 25 27 31 29 31 32 34 37 37 36 37 39 40
19 19 17 16 15 14 15 19 20 18 22 22 25 27 25 25 26 26 26 25 26 26 26 25 25 29 27 27 28 29 29 30 29 33 38 32 36 33 33 34 34 34 36 40 43
21 22 21 21 22 19 18 17 17 20 21 24 25 26 25 28 29 29 29 28 29 29 29 27 30 29 29 29 29 32 31 33 34 35 39 38 40 34 34 38 38 38 37 38 41
23 20 21 22 26 27 24 22 23 20 20 23 28 27 27 27 28 28 31 32 31 32 31 27 32 30 30 28 33 34 33 36 35 37 37 39 47 37 37 40 39 38 40 44 45
21 21 23 24 28 27 28 26 25 22 23 22 22 24 30 28 27 27 29 29 30 32 28 29 30 32 29 30 35 33 35 36 38 39 41 38 43 45 38 37 38 41 44 46 50
23 22 23 24 26 24 27 22 22 22 24 25 25 27 28 30 30 30 29 30 29 30 27 28 33 33 31 33 35 35 35 38 40 42 45 39 41 44 39 32 37 39 44 45 50
22 23 22 22 22 21 21 21 22 21 24 25 24 26 28 31 33 32 33 30 29 32 31 31 31 31 32 35 34 35 37 40 43 44 45 44 47 45 39 38 38 39 42 44 46
21 24 24 23 21 20 19 19 19 23 24 24 25 29 30 32 34 34 35 34 32 33 32 32 31 33 35 38 37 37 37 39 46 48 48 46 49 46 42 41 41 42 43 43 43
21 20 17 17 19 19 20 19 19 19 21 22 25 29 29 28 33 34 36 34 34 33 34 35 36 35 36 35 34 36 35 37 43 46 50 49 50 49 43 43 39 41 45 46 47
21 19 20 21 23 24 22 23 22 19 19 21 22 26 28 29 27 37 38 35 35 35 35 36 39 36 35 35 35 34 35 37 40 46 50 49 50 49 49 43 43 47 49 50 53
21 23 25 25 24 25 25 25 26 23 22 21 21 23 30 29 31 26 26 32 38 40 41 42 44 42 39 34 36 36 37 37 39 44 47 49 49 49 45 44 47 52 51 52 55
24 24 25 25 24 24 25 25 26 28 25 22 23 23 25 30 32 33 31 29 30 28 29 33 41 42 39 35 33 35 36 37 41 43 45 48 48 42 42 46 50 50 48 47 46
26 25 25 26 26 26 27 26 27 27 26 25 26 24 24 26 33 33 32 32 33 33 35 35 42 44 40 34 33 36 36 36 36 40 43 45 42 43 42 45 43 43 41 40 38
30 27 26 25 25 26 27 27 29 28 28 27 29 28 28 28 30 33 37 35 32 29 31 36 38 39 39 37 35 35 35 34 35 40 36 44 38 32 38 40 35 37 37 36 35
31 30 30 29 27 27 27 27 27 28 30 30 30 31 31 31 32 35 35 35 32 30 30 35 39 37 37 34 35 36 34 32 37 34 41 34 40 30 31 30 30 30 30 30 33
33 32 32 32 31 28 28 30 31 32 30 29 32 33 32 32 32 33 35 35 33 30 32 33 36 37 36 33 36 36 29 31 30 33 37 35 32 33 31 31 30 30 32 33 36
34 34 33 33 34 31 31 33 32 33 30 33 33 34 32 35 35 34 34 34 34 31 31 33 34 37 34 31 33 30 26 28 31 32 32 31 29 31 31 31 31 33 37 41 43